| time (UTC) | temp F | wind direction | speed knots | gust knots | rain 1hr in | rain 24hr in | rain mn in | humidity % | barometer mb |
| 20260506011322 | 65 | 240 | 1.7 | 5.2 | 0.00 | 0.26 | 0.04 | 72 | 1014.5 |
| 20260506011222 | 65 | 150 | 1.7 | 5.2 | 0.00 | 0.26 | 0.04 | 72 | 1014.5 |
| 20260506011122 | 65 | 205 | 1.7 | 5.2 | 0.00 | 0.26 | 0.04 | 72 | 1014.5 |
| 20260506011021 | 65 | 136 | 1.7 | 5.2 | 0.00 | 0.26 | 0.04 | 72 | 1014.5 |
| 20260506010917 | 65 | 163 | 1.7 | 3.5 | 0.00 | 0.26 | 0.04 | 73 | 1014.5 |
| 20260506010817 | 65 | 136 | 1.7 | 3.5 | 0.00 | 0.26 | 0.04 | 73 | 1014.5 |
| 20260506010717 | 65 | 139 | 1.7 | 5.2 | 0.00 | 0.26 | 0.04 | 73 | 1014.5 |
| 20260506010616 | 65 | 134 | 1.7 | 5.2 | 0.00 | 0.26 | 0.04 | 73 | 1014.5 |
| 20260506010516 | 65 | 124 | 1.7 | 5.2 | 0.00 | 0.26 | 0.04 | 73 | 1014.5 |
| 20260506010408 | 65 | 115 | 1.7 | 5.2 | 0.00 | 0.26 | 0.04 | 73 | 1014.4 |
| 20260506010307 | 65 | 116 | 1.7 | 5.2 | 0.00 | 0.26 | 0.04 | 73 | 1014.5 |
| 20260506010240 | 65 | 233 | 1.7 | 5.2 | 0.00 | 0.27 | 0.04 | 73 | 1014.5 |
| 20260506010207 | 65 | 167 | 1.7 | 5.2 | 0.00 | 0.26 | 0.04 | 73 | 1014.5 |
| 20260506010125 | 65 | 127 | 0.9 | 5.2 | 0.00 | 0.27 | 0.04 | 73 | 1014.5 |
| 20260506010114 | 65 | 233 | 1.7 | 5.2 | 0.00 | 0.27 | 0.04 | 73 | 1014.5 |
| 20260506005906 | 65 | 221 | 1.7 | 5.2 | 0.00 | 0.27 | 0.04 | 73 | 1014.5 |
| 20260506005805 | 65 | 151 | 1.7 | 5.2 | 0.00 | 0.27 | 0.04 | 73 | 1014.5 |
| 20260506005724 | 65 | 229 | 1.7 | 6.1 | 0.00 | 0.27 | 0.04 | 74 | 1014.5 |
| 20260506005705 | 65 | 176 | 1.7 | 4.3 | 0.00 | 0.27 | 0.04 | 73 | 1014.5 |
| 20260506005618 | 65 | 174 | 1.7 | 5.2 | 0.00 | 0.27 | 0.04 | 73 | 1014.4 |
| 20260506005608 | 65 | 229 | 1.7 | 6.1 | 0.00 | 0.27 | 0.04 | 74 | 1014.5 |
| 20260506005357 | 64 | 230 | 1.7 | 6.1 | 0.00 | 0.27 | 0.04 | 74 | 1014.4 |
| 20260506005257 | 64 | 231 | 1.7 | 6.1 | 0.00 | 0.27 | 0.04 | 74 | 1014.4 |
| 20260506005157 | 64 | 230 | 2.6 | 6.1 | 0.00 | 0.27 | 0.04 | 74 | 1014.4 |
| 20260506005058 | 64 | 138 | 1.7 | 6.1 | 0.00 | 0.27 | 0.04 | 73 | 1014.4 |
| 20260506004957 | 64 | 190 | 1.7 | 6.1 | 0.00 | 0.27 | 0.04 | 74 | 1014.4 |
| 20260506004850 | 64 | 172 | 1.7 | 6.1 | 0.00 | 0.27 | 0.04 | 74 | 1014.4 |
| 20260506004749 | 64 | 150 | 2.6 | 6.1 | 0.00 | 0.27 | 0.04 | 74 | 1014.4 |
| 20260506004649 | 64 | 160 | 2.6 | 6.1 | 0.00 | 0.27 | 0.04 | 74 | 1014.4 |
| 20260506004550 | 64 | 226 | 1.7 | 6.1 | 0.00 | 0.27 | 0.04 | 74 | 1014.4 |
| 20260506004347 | 64 | 168 | 1.7 | 6.1 | 0.00 | 0.27 | 0.04 | 75 | 1014.4 |
| 20260506004248 | 64 | 217 | 1.7 | 5.2 | 0.00 | 0.27 | 0.04 | 75 | 1014.4 |
| 20260506004147 | 64 | 229 | 1.7 | 5.2 | 0.00 | 0.27 | 0.04 | 75 | 1014.4 |
| 20260506004045 | 64 | 226 | 2.6 | 5.2 | 0.00 | 0.27 | 0.04 | 74 | 1014.4 |
| 20260506003946 | 64 | 235 | 1.7 | 5.2 | 0.00 | 0.27 | 0.04 | 74 | 1014.4 |
| 20260506003839 | 65 | 197 | 1.7 | 5.2 | 0.00 | 0.27 | 0.04 | 74 | 1014.4 |
| 20260506003740 | 65 | 141 | 1.7 | 4.3 | 0.00 | 0.27 | 0.04 | 75 | 1014.4 |
| 20260506003639 | 65 | 239 | 1.7 | 4.3 | 0.00 | 0.27 | 0.04 | 75 | 1014.4 |
| 20260506003540 | 65 | 148 | 1.7 | 4.3 | 0.00 | 0.27 | 0.04 | 75 | 1014.4 |
| 20260506003440 | 64 | 107 | 1.7 | 3.5 | 0.00 | 0.27 | 0.04 | 75 | 1014.4 |
| 20260506003333 | 64 | 221 | 1.7 | 3.5 | 0.00 | 0.27 | 0.04 | 75 | 1014.4 |
| 20260506003232 | 64 | 221 | 1.7 | 3.5 | 0.00 | 0.27 | 0.04 | 75 | 1014.4 |
| 20260506003131 | 64 | 207 | 1.7 | 3.5 | 0.00 | 0.27 | 0.04 | 75 | 1014.5 |
| 20260506003031 | 64 | 213 | 1.7 | 4.3 | 0.00 | 0.27 | 0.04 | 76 | 1014.5 |
| 20260506002934 | 64 | 217 | 1.7 | 4.3 | 0.00 | 0.27 | 0.04 | 76 | 1014.4 |
| 20260506002828 | 64 | 228 | 2.6 | 6.1 | 0.00 | 0.27 | 0.04 | 76 | 1014.4 |
| 20260506002725 | 64 | 217 | 2.6 | 6.1 | 0.00 | 0.27 | 0.04 | 76 | 1014.3 |
| 20260506002703 | 64 | 238 | 2.6 | 6.1 | 0.00 | 0.27 | 0.04 | 75 | 1014.4 |
| 20260506002625 | 64 | 235 | 2.6 | 6.1 | 0.00 | 0.27 | 0.04 | 76 | 1014.4 |
| 20260506002545 | 64 | 229 | 2.6 | 6.1 | 0.00 | 0.27 | 0.04 | 75 | 1014.4 |
| 20260506002534 | 64 | 238 | 2.6 | 6.1 | 0.00 | 0.27 | 0.04 | 75 | 1014.4 |
| 20260506002319 | 64 | 238 | 2.6 | 6.1 | 0.00 | 0.27 | 0.04 | 75 | 1014.4 |
| 20260506002219 | 64 | 238 | 2.6 | 6.1 | 0.00 | 0.27 | 0.04 | 74 | 1014.4 |
| 20260506002119 | 64 | 241 | 2.6 | 6.1 | 0.00 | 0.27 | 0.04 | 74 | 1014.4 |
| 20260506002019 | 64 | 267 | 2.6 | 6.1 | 0.00 | 0.27 | 0.04 | 74 | 1014.4 |
| 20260506001921 | 64 | 236 | 2.6 | 6.1 | 0.00 | 0.27 | 0.04 | 75 | 1014.4 |
| 20260506001814 | 64 | 238 | 2.6 | 6.1 | 0.00 | 0.27 | 0.04 | 75 | 1014.4 |
| 20260506001714 | 64 | 236 | 2.6 | 6.1 | 0.00 | 0.27 | 0.04 | 75 | 1014.4 |
| 20260506001648 | 64 | 193 | 2.6 | 6.1 | 0.00 | 0.27 | 0.04 | 75 | 1014.4 |
| 20260506001613 | 64 | 225 | 2.6 | 6.1 | 0.00 | 0.27 | 0.04 | 75 | 1014.4 |
| 20260506001547 | 64 | 200 | 2.6 | 6.1 | 0.00 | 0.27 | 0.04 | 75 | 1014.4 |
| 20260506001534 | 64 | 193 | 2.6 | 6.1 | 0.00 | 0.27 | 0.04 | 75 | 1014.4 |
| 20260506001309 | 64 | 181 | 2.6 | 6.1 | 0.00 | 0.27 | 0.04 | 75 | 1014.4 |
| 20260506001210 | 64 | 219 | 2.6 | 6.1 | 0.00 | 0.27 | 0.04 | 74 | 1014.4 |
| 20260506001109 | 64 | 225 | 2.6 | 6.1 | 0.00 | 0.27 | 0.04 | 74 | 1014.4 |
| 20260506001009 | 64 | 233 | 2.6 | 6.1 | 0.00 | 0.27 | 0.04 | 75 | 1014.4 |
| 20260506000911 | 64 | 224 | 2.6 | 5.2 | 0.00 | 0.27 | 0.04 | 75 | 1014.4 |
| 20260506000802 | 64 | 231 | 2.6 | 5.2 | 0.00 | 0.27 | 0.04 | 75 | 1014.4 |
| 20260506000701 | 64 | 172 | 2.6 | 5.2 | 0.00 | 0.27 | 0.04 | 75 | 1014.4 |
| 20260506000602 | 64 | 135 | 2.6 | 5.2 | 0.00 | 0.27 | 0.04 | 75 | 1014.4 |
| 20260506000502 | 64 | 210 | 2.6 | 5.2 | 0.00 | 0.27 | 0.04 | 75 | 1014.4 |
| 20260506000404 | 64 | 150 | 2.6 | 5.2 | 0.00 | 0.27 | 0.04 | 75 | 1014.4 |
| 20260506000256 | 64 | 176 | 2.6 | 5.2 | 0.00 | 0.27 | 0.04 | 74 | 1014.4 |
| 20260506000157 | 64 | 211 | 2.6 | 5.2 | 0.00 | 0.27 | 0.04 | 75 | 1014.4 |
| 20260506000056 | 64 | 195 | 2.6 | 5.2 | 0.00 | 0.27 | 0.04 | 75 | 1014.4 |
| 20260505235955 | 64 | 231 | 2.6 | 5.2 | 0.00 | 0.27 | 0.04 | 75 | 1014.4 |
| 20260505235858 | 64 | 228 | 2.6 | 5.2 | 0.00 | 0.27 | 0.04 | 75 | 1014.4 |
| 20260505235751 | 64 | 215 | 2.6 | 5.2 | 0.00 | 0.27 | 0.04 | 75 | 1014.4 |
| 20260505235650 | 64 | 204 | 2.6 | 5.2 | 0.00 | 0.27 | 0.04 | 75 | 1014.4 |
| 20260505235610 | 64 | 242 | 2.6 | 5.2 | 0.00 | 0.27 | 0.04 | 75 | 1014.4 |
| 20260505235549 | 64 | 225 | 2.6 | 5.2 | 0.00 | 0.27 | 0.04 | 74 | 1014.4 |
| 20260505235511 | 64 | 250 | 2.6 | 5.2 | 0.00 | 0.27 | 0.04 | 74 | 1014.4 |
| 20260505235455 | 64 | 242 | 2.6 | 5.2 | 0.00 | 0.27 | 0.04 | 75 | 1014.4 |
| 20260505235243 | 64 | 155 | 2.6 | 5.2 | 0.00 | 0.27 | 0.04 | 74 | 1014.4 |
| 20260505235143 | 64 | 207 | 2.6 | 5.2 | 0.00 | 0.27 | 0.04 | 74 | 1014.4 |
| 20260505235043 | 64 | 239 | 2.6 | 5.2 | 0.00 | 0.27 | 0.04 | 74 | 1014.4 |
| 20260505234944 | 64 | 239 | 2.6 | 5.2 | 0.00 | 0.27 | 0.04 | 74 | 1014.4 |
| 20260505234845 | 65 | 219 | 2.6 | 5.2 | 0.00 | 0.27 | 0.04 | 74 | 1014.4 |
| 20260505234739 | 65 | 167 | 1.7 | 5.2 | 0.00 | 0.27 | 0.04 | 74 | 1014.4 |
| 20260505234640 | 65 | 238 | 1.7 | 5.2 | 0.00 | 0.27 | 0.04 | 74 | 1014.4 |
| 20260505234540 | 65 | 217 | 1.7 | 4.3 | 0.00 | 0.27 | 0.04 | 74 | 1014.4 |
| 20260505234439 | 65 | 221 | 1.7 | 6.1 | 0.00 | 0.27 | 0.04 | 74 | 1014.4 |
| 20260505234353 | 65 | 207 | 1.7 | 6.1 | 0.00 | 0.27 | 0.04 | 74 | 1014.4 |
| 20260505234233 | 65 | 121 | 1.7 | 6.1 | 0.00 | 0.27 | 0.04 | 74 | 1014.3 |
| 20260505234132 | 65 | 212 | 1.7 | 6.1 | 0.00 | 0.27 | 0.04 | 74 | 1014.3 |
| 20260505234056 | 65 | 174 | 1.7 | 6.1 | 0.00 | 0.27 | 0.04 | 73 | 1014.3 |
| 20260505234031 | 65 | 174 | 1.7 | 6.1 | 0.00 | 0.27 | 0.04 | 73 | 1014.3 |
| 20260505233949 | 65 | 208 | 1.7 | 6.1 | 0.00 | 0.27 | 0.04 | 73 | 1014.3 |
| 20260505233939 | 65 | 174 | 1.7 | 6.1 | 0.00 | 0.27 | 0.04 | 73 | 1014.3 |
| 20260505233727 | 65 | 194 | 1.7 | 6.1 | 0.00 | 0.27 | 0.04 | 74 | 1014.3 |
| 20260505233627 | 65 | 148 | 1.7 | 6.1 | 0.00 | 0.27 | 0.04 | 73 | 1014.3 |
| 20260505233551 | 65 | 232 | 1.7 | 4.3 | 0.00 | 0.27 | 0.04 | 74 | 1014.3 |
| 20260505233527 | 65 | 197 | 1.7 | 6.1 | 0.00 | 0.27 | 0.04 | 74 | 1014.3 |
| 20260505233446 | 65 | 235 | 1.7 | 4.3 | 0.00 | 0.27 | 0.04 | 74 | 1014.4 |
| 20260505233433 | 65 | 232 | 1.7 | 4.3 | 0.00 | 0.27 | 0.04 | 74 | 1014.3 |
| 20260505233224 | 65 | 219 | 1.7 | 4.3 | 0.00 | 0.27 | 0.04 | 74 | 1014.3 |
| 20260505233123 | 65 | 236 | 1.7 | 4.3 | 0.00 | 0.27 | 0.04 | 74 | 1014.3 |
| 20260505233024 | 65 | 231 | 1.7 | 4.3 | 0.00 | 0.27 | 0.04 | 74 | 1014.3 |
| 20260505232921 | 65 | 242 | 1.7 | 4.3 | 0.00 | 0.27 | 0.04 | 74 | 1014.3 |
| 20260505232821 | 65 | 208 | 1.7 | 4.3 | 0.00 | 0.27 | 0.04 | 74 | 1014.3 |
| 20260505232714 | 65 | 143 | 1.7 | 4.3 | 0.00 | 0.27 | 0.04 | 73 | 1014.4 |
| 20260505232613 | 65 | 140 | 1.7 | 4.3 | 0.00 | 0.27 | 0.04 | 73 | 1014.4 |
| 20260505232513 | 65 | 225 | 1.7 | 4.3 | 0.00 | 0.27 | 0.04 | 74 | 1014.4 |
| 20260505232414 | 65 | 217 | 1.7 | 7.0 | 0.00 | 0.27 | 0.04 | 74 | 1014.3 |
| 20260505232316 | 65 | 170 | 1.7 | 7.0 | 0.00 | 0.27 | 0.04 | 74 | 1014.4 |
| 20260505232212 | 65 | 143 | 1.7 | 7.0 | 0.00 | 0.27 | 0.04 | 74 | 1014.4 |
| 20260505232111 | 65 | 204 | 1.7 | 7.0 | 0.00 | 0.27 | 0.04 | 74 | 1014.4 |
| 20260505232027 | 65 | 231 | 1.7 | 7.0 | 0.00 | 0.27 | 0.04 | 74 | 1014.3 |
| 20260505232011 | 65 | 134 | 1.7 | 7.0 | 0.00 | 0.27 | 0.04 | 74 | 1014.3 |
| 20260505231923 | 65 | 200 | 1.7 | 7.0 | 0.00 | 0.27 | 0.04 | 74 | 1014.3 |
| 20260505231913 | 65 | 231 | 1.7 | 7.0 | 0.00 | 0.27 | 0.04 | 74 | 1014.3 |
| 20260505231705 | 65 | 226 | 1.7 | 7.0 | 0.00 | 0.27 | 0.04 | 74 | 1014.3 |
| 20260505231606 | 65 | 115 | 1.7 | 7.0 | 0.00 | 0.27 | 0.04 | 74 | 1014.3 |
| 20260505231504 | 65 | 181 | 1.7 | 7.0 | 0.00 | 0.27 | 0.04 | 73 | 1014.3 |
| 20260505231404 | 65 | 217 | 1.7 | 4.3 | 0.00 | 0.27 | 0.04 | 74 | 1014.3 |
| 20260505231303 | 65 | 150 | 1.7 | 4.3 | 0.00 | 0.27 | 0.04 | 74 | 1014.3 |
| 20260505231157 | 65 | 152 | 1.7 | 4.3 | 0.00 | 0.27 | 0.04 | 74 | 1014.3 |
| 20260505231057 | 64 | 141 | 1.7 | 4.3 | 0.00 | 0.27 | 0.04 | 74 | 1014.3 |
| 20260505230958 | 64 | 232 | 1.7 | 5.2 | 0.00 | 0.27 | 0.04 | 74 | 1014.3 |
| 20260505230857 | 65 | 225 | 1.7 | 5.2 | 0.00 | 0.27 | 0.04 | 73 | 1014.3 |
| 20260505230837 | 65 | 231 | 1.7 | 5.2 | 0.00 | 0.27 | 0.04 | 73 | 1014.3 |
| 20260505230758 | 65 | 231 | 1.7 | 5.2 | 0.00 | 0.27 | 0.04 | 73 | 1014.3 |
| 20260505230650 | 65 | 233 | 1.7 | 5.2 | 0.00 | 0.27 | 0.04 | 73 | 1014.3 |
| 20260505230549 | 65 | 245 | 1.7 | 5.2 | 0.00 | 0.28 | 0.04 | 73 | 1014.4 |
| 20260505230449 | 65 | 255 | 1.7 | 5.2 | 0.00 | 0.28 | 0.04 | 74 | 1014.3 |
| 20260505230349 | 65 | 143 | 1.7 | 5.2 | 0.00 | 0.28 | 0.04 | 73 | 1014.3 |
| 20260505230251 | 65 | 226 | 1.7 | 5.2 | 0.00 | 0.28 | 0.04 | 73 | 1014.3 |
| 20260505230146 | 65 | 218 | 1.7 | 5.2 | 0.00 | 0.28 | 0.04 | 73 | 1014.4 |
| 20260505230046 | 65 | 165 | 1.7 | 5.2 | 0.00 | 0.28 | 0.04 | 74 | 1014.4 |
| 20260505225945 | 65 | 150 | 1.7 | 4.3 | 0.00 | 0.28 | 0.04 | 74 | 1014.4 |
| 20260505225846 | 65 | 170 | 1.7 | 4.3 | 0.00 | 0.28 | 0.04 | 74 | 1014.4 |
| 20260505225746 | 65 | 239 | 1.7 | 4.3 | 0.00 | 0.28 | 0.04 | 74 | 1014.4 |
| 20260505225639 | 65 | 150 | 1.7 | 4.3 | 0.00 | 0.28 | 0.04 | 74 | 1014.4 |
| 20260505225537 | 65 | 235 | 1.7 | 4.3 | 0.00 | 0.28 | 0.04 | 74 | 1014.4 |
| 20260505225436 | 65 | 236 | 1.7 | 4.3 | 0.00 | 0.28 | 0.04 | 74 | 1014.4 |
| 20260505225337 | 65 | 236 | 1.7 | 4.3 | 0.00 | 0.28 | 0.04 | 73 | 1014.4 |
| 20260505225241 | 65 | 214 | 1.7 | 4.3 | 0.00 | 0.28 | 0.04 | 73 | 1014.4 |
| 20260505225131 | 65 | 238 | 1.7 | 4.3 | 0.00 | 0.28 | 0.04 | 74 | 1014.4 |
| 20260505225032 | 65 | 200 | 1.7 | 4.3 | 0.00 | 0.28 | 0.04 | 74 | 1014.4 |
| 20260505224931 | 65 | 225 | 1.7 | 5.2 | 0.00 | 0.28 | 0.04 | 74 | 1014.4 |
| 20260505224832 | 65 | 228 | 1.7 | 5.2 | 0.00 | 0.28 | 0.04 | 74 | 1014.4 |
| 20260505224734 | 65 | 181 | 1.7 | 5.2 | 0.00 | 0.28 | 0.04 | 74 | 1014.4 |
| 20260505224631 | 65 | 240 | 1.7 | 5.2 | 0.00 | 0.28 | 0.04 | 74 | 1014.4 |
| 20260505224529 | 65 | 219 | 1.7 | 5.2 | 0.00 | 0.28 | 0.04 | 74 | 1014.5 |
| 20260505224429 | 65 | 198 | 1.7 | 5.2 | 0.00 | 0.28 | 0.04 | 74 | 1014.4 |
| 20260505224328 | 65 | 208 | 1.7 | 5.2 | 0.00 | 0.28 | 0.04 | 74 | 1014.4 |
| 20260505224227 | 65 | 185 | 1.7 | 5.2 | 0.00 | 0.28 | 0.04 | 74 | 1014.5 |
| 20260505224120 | 65 | 221 | 1.7 | 5.2 | 0.00 | 0.28 | 0.04 | 73 | 1014.4 |
| 20260505224019 | 65 | 232 | 1.7 | 5.2 | 0.00 | 0.28 | 0.04 | 73 | 1014.4 |
| 20260505223920 | 65 | 224 | 1.7 | 5.2 | 0.00 | 0.28 | 0.04 | 73 | 1014.5 |
| 20260505223820 | 65 | 242 | 1.7 | 5.2 | 0.00 | 0.28 | 0.04 | 72 | 1014.5 |
| 20260505223720 | 65 | 225 | 1.7 | 4.3 | 0.00 | 0.28 | 0.04 | 73 | 1014.5 |
| 20260505223620 | 65 | 137 | 1.7 | 4.3 | 0.00 | 0.28 | 0.04 | 72 | 1014.5 |
| 20260505223518 | 65 | 137 | 2.6 | 4.3 | 0.00 | 0.28 | 0.04 | 72 | 1014.5 |
| 20260505223418 | 65 | 223 | 2.6 | 4.3 | 0.00 | 0.28 | 0.04 | 71 | 1014.5 |
| 20260505223315 | 65 | 212 | 2.6 | 4.3 | 0.00 | 0.28 | 0.04 | 71 | 1014.6 |
| 20260505223215 | 66 | 186 | 2.6 | 4.3 | 0.00 | 0.28 | 0.04 | 70 | 1014.6 |
| 20260505223109 | 66 | 132 | 2.6 | 4.3 | 0.00 | 0.28 | 0.04 | 70 | 1014.6 |
| 20260505223007 | 66 | 191 | 2.6 | 5.2 | 0.00 | 0.28 | 0.04 | 70 | 1014.6 |
| 20260505222908 | 66 | 243 | 2.6 | 5.2 | 0.00 | 0.28 | 0.04 | 70 | 1014.6 |
| 20260505222807 | 66 | 248 | 2.6 | 5.2 | 0.00 | 0.28 | 0.04 | 70 | 1014.6 |
| 20260505222710 | 66 | 136 | 2.6 | 5.2 | 0.00 | 0.28 | 0.04 | 70 | 1014.6 |
| 20260505222601 | 67 | 212 | 2.6 | 5.2 | 0.00 | 0.28 | 0.04 | 69 | 1014.6 |
| 20260505222501 | 67 | 218 | 1.7 | 5.2 | 0.00 | 0.28 | 0.04 | 69 | 1014.6 |
| 20260505222402 | 67 | 203 | 1.7 | 5.2 | 0.00 | 0.28 | 0.04 | 69 | 1014.6 |
| 20260505222301 | 67 | 205 | 1.7 | 5.2 | 0.00 | 0.28 | 0.04 | 68 | 1014.6 |
| 20260505222202 | 67 | 135 | 1.7 | 5.2 | 0.00 | 0.28 | 0.04 | 68 | 1014.6 |
| 20260505222100 | 67 | 211 | 1.7 | 5.2 | 0.00 | 0.28 | 0.04 | 68 | 1014.6 |
| 20260505221959 | 67 | 236 | 1.7 | 5.2 | 0.00 | 0.28 | 0.04 | 68 | 1014.6 |
| 20260505221900 | 67 | 105 | 1.7 | 5.2 | 0.00 | 0.28 | 0.04 | 68 | 1014.7 |
| 20260505221757 | 67 | 161 | 1.7 | 5.2 | 0.00 | 0.28 | 0.04 | 67 | 1014.7 |
| 20260505221657 | 67 | 238 | 1.7 | 5.2 | 0.00 | 0.28 | 0.04 | 66 | 1014.7 |
| 20260505221550 | 68 | 204 | 1.7 | 4.3 | 0.00 | 0.28 | 0.04 | 66 | 1014.7 |
| 20260505221450 | 68 | 228 | 1.7 | 4.3 | 0.00 | 0.28 | 0.04 | 66 | 1014.7 |
| 20260505221349 | 68 | 167 | 1.7 | 4.3 | 0.00 | 0.28 | 0.04 | 66 | 1014.7 |
| 20260505221250 | 68 | 116 | 1.7 | 4.3 | 0.00 | 0.28 | 0.04 | 66 | 1014.7 |
| 20260505221151 | 68 | 150 | 0.9 | 4.3 | 0.00 | 0.28 | 0.04 | 67 | 1014.7 |
| 20260505221045 | 68 | 134 | 0.9 | 4.3 | 0.00 | 0.28 | 0.04 | 68 | 1014.7 |
| 20260505220945 | 68 | 117 | 0.9 | 4.3 | 0.00 | 0.28 | 0.04 | 68 | 1014.7 |
| 20260505220851 | 66 | 125 | 0.9 | 5.2 | 0.00 | 0.28 | 0.04 | 69 | 1014.7 |
| 20260505220846 | 68 | 231 | 0.9 | 4.3 | 0.00 | 0.28 | 0.04 | 68 | 1014.7 |
| 20260505220751 | 67 | 164 | 0.9 | 4.3 | 0.00 | 0.28 | 0.04 | 68 | 1014.7 |
| 20260505220736 | 67 | 135 | 0.9 | 3.5 | 0.00 | 0.28 | 0.04 | 68 | 1014.7 |
| 20260505220539 | 67 | 98 | 0.9 | 3.5 | 0.00 | 0.28 | 0.04 | 68 | 1014.7 |
| 20260505220515 | 67 | 136 | 0.9 | 3.5 | 0.00 | 0.28 | 0.04 | 69 | 1014.7 |
| 20260505220340 | 67 | 126 | 0.9 | 3.5 | 0.00 | 0.28 | 0.04 | 69 | 1014.7 |
| 20260505220254 | 66 | 125 | 0.9 | 3.5 | 0.00 | 0.28 | 0.04 | 69 | 1014.7 |
| 20260505220243 | 66 | 125 | 0.9 | 5.2 | 0.00 | 0.28 | 0.04 | 69 | 1014.7 |
| 20260505220033 | 66 | 152 | 1.7 | 5.2 | 0.00 | 0.28 | 0.04 | 70 | 1014.8 |
| 20260505215933 | 66 | 76 | 1.7 | 5.2 | 0.00 | 0.28 | 0.04 | 69 | 1014.7 |
| 20260505215834 | 66 | 108 | 1.7 | 5.2 | 0.00 | 0.28 | 0.04 | 70 | 1014.8 |
| 20260505215733 | 65 | 78 | 0.9 | 5.2 | 0.00 | 0.28 | 0.04 | 71 | 1014.8 |
| 20260505215633 | 65 | 150 | 0.9 | 5.2 | 0.00 | 0.28 | 0.04 | 70 | 1014.8 |
| 20260505215529 | 65 | 277 | 0.9 | 5.2 | 0.00 | 0.28 | 0.04 | 71 | 1014.7 |
| 20260505215430 | 65 | 273 | 0.9 | 5.2 | 0.00 | 0.28 | 0.04 | 71 | 1014.8 |
| 20260505215329 | 66 | 260 | 0.9 | 5.2 | 0.00 | 0.28 | 0.04 | 70 | 1014.8 |
| 20260505215228 | 66 | 200 | 0.9 | 5.2 | 0.00 | 0.28 | 0.04 | 70 | 1014.8 |
| 20260505215128 | 66 | 155 | 0.9 | 4.3 | 0.00 | 0.28 | 0.04 | 69 | 1014.8 |
| 20260505215020 | 66 | 153 | 0.9 | 4.3 | 0.00 | 0.28 | 0.04 | 70 | 1014.8 |
| 20260505214919 | 66 | 212 | 0.9 | 3.5 | 0.00 | 0.28 | 0.04 | 71 | 1014.8 |
| 20260505214844 | 66 | 224 | 0.9 | 3.5 | 0.00 | 0.28 | 0.04 | 70 | 1014.8 |
| 20260505214820 | 66 | 245 | 0.9 | 3.5 | 0.00 | 0.28 | 0.04 | 70 | 1014.8 |
| 20260505214738 | 66 | 224 | 0.9 | 3.5 | 0.00 | 0.28 | 0.04 | 70 | 1014.8 |
| 20260505214728 | 66 | 224 | 0.9 | 3.5 | 0.00 | 0.28 | 0.04 | 70 | 1014.8 |
| 20260505214517 | 66 | 260 | 0.9 | 3.5 | 0.00 | 0.28 | 0.04 | 69 | 1014.8 |
| 20260505214418 | 66 | 260 | 0.9 | 3.5 | 0.00 | 0.28 | 0.04 | 69 | 1014.9 |
| 20260505214317 | 66 | 257 | 0.9 | 3.5 | 0.00 | 0.28 | 0.04 | 69 | 1014.9 |
| 20260505214215 | 66 | 227 | 0.9 | 3.5 | 0.00 | 0.28 | 0.04 | 70 | 1014.9 |
| 20260505214116 | 66 | 141 | 0.9 | 3.5 | 0.00 | 0.28 | 0.04 | 70 | 1014.9 |
| 20260505214010 | 66 | 126 | 0.9 | 3.5 | 0.00 | 0.28 | 0.04 | 70 | 1014.9 |
| 20260505213908 | 66 | 149 | 0.9 | 3.5 | 0.00 | 0.28 | 0.04 | 71 | 1014.9 |
| 20260505213807 | 66 | 210 | 0.9 | 3.5 | 0.00 | 0.28 | 0.04 | 70 | 1014.9 |
| 20260505213707 | 66 | 219 | 0.9 | 3.5 | 0.00 | 0.28 | 0.04 | 70 | 1014.9 |
| 20260505213610 | 66 | 150 | 0.9 | 3.5 | 0.00 | 0.28 | 0.04 | 71 | 1014.9 |
| 20260505213503 | 66 | 105 | 0.0 | 1.7 | 0.00 | 0.28 | 0.04 | 71 | 1014.9 |
| 20260505213403 | 65 | 151 | 0.0 | 1.7 | 0.00 | 0.28 | 0.04 | 71 | 1014.9 |
| 20260505213304 | 65 | 163 | 0.0 | 1.7 | 0.00 | 0.28 | 0.04 | 72 | 1014.9 |
| 20260505213204 | 65 | 58 | 0.0 | 1.7 | 0.00 | 0.28 | 0.04 | 72 | 1014.9 |
| 20260505213106 | 65 | 33 | 0.0 | 1.7 | 0.00 | 0.28 | 0.04 | 72 | 1014.9 |
| 20260505213002 | 65 | 34 | 0.0 | 1.7 | 0.00 | 0.28 | 0.04 | 72 | 1014.9 |
| 20260505212900 | 65 | 36 | 0.0 | 1.7 | 0.00 | 0.28 | 0.04 | 72 | 1015.0 |
| 20260505212759 | 65 | 70 | 0.0 | 1.7 | 0.00 | 0.28 | 0.04 | 72 | 1014.9 |
| 20260505212657 | 65 | 74 | 0.0 | 1.7 | 0.00 | 0.28 | 0.04 | 72 | 1015.0 |
| 20260505212600 | 65 | 13 | 0.0 | 1.7 | 0.00 | 0.28 | 0.04 | 72 | 1015.0 |
| 20260505212455 | 65 | 13 | 0.0 | 1.7 | 0.00 | 0.28 | 0.04 | 72 | 1014.9 |
| 20260505212353 | 65 | 97 | 0.0 | 0.9 | 0.00 | 0.28 | 0.04 | 71 | 1015.0 |
| 20260505212254 | 65 | 117 | 0.0 | 0.9 | 0.00 | 0.28 | 0.04 | 72 | 1015.0 |
| 20260505212152 | 65 | 117 | 0.0 | 1.7 | 0.00 | 0.28 | 0.04 | 72 | 1015.0 |
| 20260505212050 | 65 | 117 | 0.0 | 1.7 | 0.00 | 0.28 | 0.04 | 73 | 1015.0 |
| 20260505211949 | 65 | 117 | 0.0 | 1.7 | 0.00 | 0.28 | 0.04 | 73 | 1015.0 |
| 20260505211848 | 65 | 117 | 0.9 | 2.6 | 0.00 | 0.28 | 0.04 | 74 | 1015.0 |
| 20260505211747 | 65 | 231 | 0.9 | 2.6 | 0.00 | 0.28 | 0.04 | 74 | 1015.0 |
| 20260505211645 | 65 | 231 | 0.9 | 2.6 | 0.00 | 0.28 | 0.04 | 76 | 1015.0 |
| 20260505211545 | 65 | 231 | 0.9 | 2.6 | 0.00 | 0.28 | 0.04 | 76 | 1015.0 |
| 20260505211439 | 65 | 231 | 0.9 | 2.6 | 0.00 | 0.28 | 0.04 | 76 | 1015.0 |
| 20260505211337 | 65 | 231 | 0.9 | 2.6 | 0.00 | 0.28 | 0.04 | 75 | 1015.0 |
| 20260505211238 | 65 | 231 | 0.9 | 2.6 | 0.00 | 0.28 | 0.04 | 75 | 1015.0 |
| 20260505211137 | 65 | 228 | 0.9 | 4.3 | 0.00 | 0.28 | 0.04 | 76 | 1015.0 |
| 20260505211040 | 64 | 228 | 0.9 | 4.3 | 0.00 | 0.28 | 0.04 | 76 | 1015.0 |
| 20260505210933 | 64 | 210 | 0.9 | 4.3 | 0.00 | 0.28 | 0.04 | 77 | 1015.0 |
| 20260505210834 | 64 | 146 | 0.9 | 4.3 | 0.00 | 0.28 | 0.04 | 77 | 1015.0 |
| 20260505210733 | 64 | 145 | 0.9 | 4.3 | 0.00 | 0.28 | 0.04 | 77 | 1015.1 |
| 20260505210633 | 64 | 115 | 0.9 | 4.3 | 0.00 | 0.28 | 0.04 | 78 | 1015.0 |
| 20260505210533 | 64 | 179 | 0.9 | 4.3 | 0.00 | 0.28 | 0.04 | 79 | 1015.1 |
| 20260505210428 | 63 | 179 | 0.9 | 4.3 | 0.00 | 0.28 | 0.04 | 79 | 1015.1 |
| 20260505210328 | 63 | 146 | 1.7 | 4.3 | 0.00 | 0.28 | 0.04 | 79 | 1015.0 |
| 20260505210227 | 63 | 219 | 1.7 | 4.3 | 0.00 | 0.28 | 0.04 | 79 | 1015.1 |
| 20260505210127 | 63 | 217 | 1.7 | 4.3 | 0.00 | 0.28 | 0.04 | 79 | 1015.0 |
| 20260505210029 | 63 | 217 | 1.7 | 4.3 | 0.00 | 0.28 | 0.04 | 79 | 1015.1 |
| 20260505205919 | 63 | 226 | 1.7 | 4.3 | 0.00 | 0.28 | 0.04 | 78 | 1015.1 |
| 20260505205820 | 63 | 238 | 1.7 | 4.3 | 0.00 | 0.28 | 0.04 | 79 | 1015.0 |
| 20260505205741 | 62 | 207 | 1.7 | 4.3 | 0.00 | 0.28 | 0.04 | 79 | 1015.0 |
| 20260505205720 | 62 | 248 | 1.7 | 4.3 | 0.00 | 0.28 | 0.04 | 79 | 1015.0 |
| 20260505205636 | 62 | 236 | 1.7 | 4.3 | 0.00 | 0.28 | 0.04 | 80 | 1015.1 |
| 20260505205626 | 62 | 207 | 1.7 | 4.3 | 0.00 | 0.28 | 0.04 | 79 | 1015.0 |
| 20260505205415 | 62 | 184 | 1.7 | 4.3 | 0.00 | 0.28 | 0.04 | 79 | 1015.1 |
| 20260505205313 | 62 | 238 | 1.7 | 5.2 | 0.00 | 0.28 | 0.04 | 80 | 1015.1 |
| 20260505205215 | 62 | 160 | 1.7 | 5.2 | 0.00 | 0.28 | 0.04 | 80 | 1015.0 |
| 20260505205113 | 62 | 193 | 1.7 | 5.2 | 0.00 | 0.28 | 0.04 | 80 | 1015.1 |
| 20260505205016 | 62 | 222 | 0.9 | 5.2 | 0.00 | 0.28 | 0.04 | 80 | 1015.1 |
| 20260505204907 | 62 | 222 | 0.9 | 5.2 | 0.00 | 0.28 | 0.04 | 80 | 1015.1 |
| 20260505204808 | 62 | 235 | 0.9 | 5.2 | 0.00 | 0.28 | 0.04 | 80 | 1015.1 |
| 20260505204729 | 62 | 232 | 0.9 | 5.2 | 0.00 | 0.28 | 0.04 | 81 | 1015.1 |
| 20260505204707 | 62 | 141 | 0.9 | 5.2 | 0.00 | 0.28 | 0.04 | 79 | 1015.1 |
| 20260505204624 | 62 | 233 | 0.9 | 5.2 | 0.00 | 0.28 | 0.04 | 80 | 1015.1 |
| 20260505204614 | 62 | 232 | 0.9 | 5.2 | 0.00 | 0.28 | 0.04 | 81 | 1015.1 |
| 20260505204411 | 62 | 232 | 1.7 | 5.2 | 0.00 | 0.28 | 0.04 | 81 | 1015.2 |
| 20260505204305 | 62 | 226 | 1.7 | 5.2 | 0.00 | 0.28 | 0.04 | 82 | 1015.1 |
| 20260505204230 | 62 | 222 | 2.6 | 7.8 | 0.00 | 0.28 | 0.04 | 81 | 1015.1 |
| 20260505204206 | 62 | 215 | 1.7 | 5.2 | 0.00 | 0.28 | 0.04 | 81 | 1015.1 |
| 20260505204119 | 62 | 218 | 2.6 | 7.0 | 0.00 | 0.28 | 0.04 | 81 | 1015.1 |
| 20260505204108 | 62 | 222 | 2.6 | 7.8 | 0.00 | 0.28 | 0.04 | 81 | 1015.1 |
| 20260505203857 | 62 | 248 | 2.6 | 7.8 | 0.00 | 0.28 | 0.04 | 81 | 1015.1 |
| 20260505203758 | 62 | 236 | 3.5 | 7.8 | 0.00 | 0.28 | 0.04 | 81 | 1015.1 |
| 20260505203657 | 62 | 127 | 3.5 | 7.8 | 0.00 | 0.28 | 0.04 | 82 | 1015.1 |
| 20260505203557 | 61 | 238 | 3.5 | 7.8 | 0.00 | 0.28 | 0.04 | 82 | 1015.1 |
| 20260505203457 | 61 | 158 | 3.5 | 7.8 | 0.00 | 0.28 | 0.04 | 82 | 1015.2 |
| 20260505203349 | 61 | 229 | 3.5 | 7.8 | 0.00 | 0.28 | 0.04 | 82 | 1015.2 |
| 20260505203249 | 61 | 246 | 3.5 | 7.8 | 0.00 | 0.28 | 0.04 | 81 | 1015.2 |
| 20260505203149 | 61 | 229 | 2.6 | 7.8 | 0.00 | 0.28 | 0.04 | 81 | 1015.2 |
| 20260505203050 | 61 | 242 | 2.6 | 7.8 | 0.00 | 0.28 | 0.04 | 81 | 1015.1 |
| 20260505202950 | 62 | 217 | 2.6 | 6.1 | 0.00 | 0.28 | 0.04 | 81 | 1015.1 |
| 20260505202844 | 62 | 224 | 2.6 | 6.1 | 0.00 | 0.28 | 0.04 | 81 | 1015.2 |
| 20260505202745 | 62 | 235 | 2.6 | 6.1 | 0.00 | 0.28 | 0.04 | 81 | 1015.1 |
| 20260505202644 | 62 | 216 | 2.6 | 6.1 | 0.00 | 0.28 | 0.04 | 81 | 1015.1 |
| 20260505202543 | 62 | 231 | 2.6 | 6.1 | 0.00 | 0.28 | 0.04 | 82 | 1015.1 |
| 20260505202445 | 62 | 235 | 2.6 | 6.1 | 0.00 | 0.28 | 0.04 | 81 | 1015.1 |
| 20260505202338 | 62 | 186 | 2.6 | 6.1 | 0.00 | 0.28 | 0.04 | 80 | 1015.1 |
| 20260505202238 | 62 | 204 | 2.6 | 6.1 | 0.00 | 0.28 | 0.04 | 81 | 1015.1 |
| 20260505202157 | 62 | 215 | 1.7 | 7.0 | 0.00 | 0.28 | 0.04 | 80 | 1015.1 |
| 20260505202137 | 62 | 241 | 2.6 | 6.1 | 0.00 | 0.28 | 0.04 | 81 | 1015.1 |
| 20260505202055 | 62 | 160 | 2.6 | 7.0 | 0.00 | 0.28 | 0.04 | 80 | 1015.1 |
| 20260505202045 | 62 | 215 | 1.7 | 7.0 | 0.00 | 0.28 | 0.04 | 80 | 1015.1 |
| 20260505201833 | 62 | 214 | 1.7 | 7.0 | 0.00 | 0.28 | 0.04 | 81 | 1015.2 |
| 20260505201734 | 62 | 256 | 1.7 | 7.0 | 0.00 | 0.28 | 0.04 | 81 | 1015.2 |
| 20260505201653 | 62 | 159 | 1.7 | 7.0 | 0.00 | 0.28 | 0.04 | 81 | 1015.2 |
| 20260505201634 | 62 | 179 | 1.7 | 7.0 | 0.00 | 0.28 | 0.04 | 81 | 1015.2 |
| 20260505201547 | 62 | 155 | 2.6 | 7.0 | 0.00 | 0.28 | 0.04 | 81 | 1015.1 |
| 20260505201537 | 62 | 159 | 1.7 | 7.0 | 0.00 | 0.28 | 0.04 | 81 | 1015.2 |
| 20260505201326 | 62 | 250 | 1.7 | 7.0 | 0.00 | 0.28 | 0.04 | 81 | 1015.2 |
| 20260505201227 | 62 | 135 | 1.7 | 7.0 | 0.00 | 0.28 | 0.04 | 80 | 1015.2 |
| 20260505201125 | 62 | 223 | 1.7 | 7.0 | 0.00 | 0.28 | 0.04 | 80 | 1015.1 |
| 20260505201026 | 62 | 238 | 1.7 | 5.2 | 0.00 | 0.28 | 0.04 | 80 | 1015.2 |
| 20260505200927 | 62 | 224 | 1.7 | 5.2 | 0.00 | 0.28 | 0.04 | 80 | 1015.2 |
| 20260505200821 | 62 | 233 | 1.7 | 4.3 | 0.00 | 0.28 | 0.04 | 80 | 1015.2 |
| 20260505200722 | 62 | 195 | 2.6 | 6.1 | 0.00 | 0.28 | 0.04 | 80 | 1015.2 |
| 20260505200621 | 62 | 242 | 2.6 | 6.1 | 0.00 | 0.28 | 0.04 | 80 | 1015.2 |
| 20260505200521 | 62 | 245 | 2.6 | 6.1 | 0.00 | 0.28 | 0.04 | 80 | 1015.2 |
| 20260505200421 | 62 | 260 | 2.6 | 6.1 | 0.00 | 0.28 | 0.04 | 80 | 1015.2 |
| 20260505200313 | 62 | 235 | 2.6 | 6.1 | 0.00 | 0.28 | 0.04 | 81 | 1015.2 |
| 20260505200214 | 62 | 217 | 2.6 | 6.1 | 0.00 | 0.28 | 0.04 | 80 | 1015.2 |
| 20260505200137 | 62 | 235 | 1.7 | 6.1 | 0.00 | 0.28 | 0.04 | 80 | 1015.2 |
| 20260505200114 | 62 | 204 | 1.7 | 6.1 | 0.00 | 0.28 | 0.04 | 80 | 1015.3 |
| 20260505200030 | 62 | 136 | 1.7 | 6.1 | 0.00 | 0.28 | 0.04 | 80 | 1015.2 |
| 20260505200020 | 62 | 235 | 1.7 | 6.1 | 0.00 | 0.28 | 0.04 | 80 | 1015.2 |
| 20260505195814 | 62 | 167 | 1.7 | 6.1 | 0.00 | 0.28 | 0.04 | 79 | 1015.2 |
| 20260505195712 | 62 | 204 | 1.7 | 5.2 | 0.00 | 0.28 | 0.04 | 80 | 1015.3 |
| 20260505195610 | 62 | 217 | 1.7 | 5.2 | 0.00 | 0.28 | 0.04 | 80 | 1015.3 |
| 20260505195509 | 62 | 141 | 1.7 | 5.2 | 0.00 | 0.28 | 0.04 | 80 | 1015.3 |
| 20260505195413 | 62 | 143 | 1.7 | 4.3 | 0.00 | 0.28 | 0.04 | 80 | 1015.3 |
| 20260505195305 | 62 | 118 | 1.7 | 4.3 | 0.00 | 0.28 | 0.04 | 80 | 1015.3 |
| 20260505195202 | 62 | 154 | 1.7 | 4.3 | 0.00 | 0.28 | 0.04 | 80 | 1015.3 |
| 20260505195101 | 62 | 183 | 1.7 | 4.3 | 0.00 | 0.28 | 0.04 | 80 | 1015.3 |
| 20260505195001 | 62 | 221 | 1.7 | 4.3 | 0.00 | 0.28 | 0.04 | 80 | 1015.3 |
| 20260505194904 | 62 | 146 | 1.7 | 4.3 | 0.00 | 0.28 | 0.04 | 80 | 1015.3 |
| 20260505194756 | 62 | 208 | 1.7 | 4.3 | 0.00 | 0.28 | 0.04 | 79 | 1015.3 |
| 20260505194656 | 62 | 244 | 0.9 | 4.3 | 0.00 | 0.28 | 0.04 | 78 | 1015.3 |
| 20260505194556 | 63 | 236 | 0.9 | 4.3 | 0.00 | 0.28 | 0.04 | 79 | 1015.3 |
| 20260505194456 | 63 | 245 | 0.9 | 4.3 | 0.00 | 0.28 | 0.04 | 79 | 1015.3 |
| 20260505194359 | 63 | 160 | 0.9 | 4.3 | 0.00 | 0.28 | 0.04 | 79 | 1015.3 |
| 20260505194253 | 63 | 150 | 0.9 | 4.3 | 0.00 | 0.28 | 0.04 | 78 | 1015.3 |
| 20260505194154 | 62 | 136 | 0.9 | 3.5 | 0.00 | 0.28 | 0.04 | 77 | 1015.3 |
| 20260505194053 | 62 | 124 | 0.9 | 3.5 | 0.00 | 0.28 | 0.04 | 76 | 1015.3 |
| 20260505193951 | 62 | 99 | 0.9 | 3.5 | 0.00 | 0.28 | 0.04 | 76 | 1015.3 |
| 20260505193851 | 62 | 99 | 0.9 | 3.5 | 0.00 | 0.28 | 0.04 | 76 | 1015.3 |
| 20260505193743 | 62 | 124 | 0.9 | 3.5 | 0.00 | 0.28 | 0.04 | 76 | 1015.3 |
| 20260505193644 | 62 | 124 | 0.9 | 3.5 | 0.00 | 0.28 | 0.04 | 75 | 1015.3 |
| 20260505193601 | 62 | 117 | 0.9 | 3.5 | 0.00 | 0.28 | 0.04 | 75 | 1015.2 |
| 20260505193543 | 62 | 124 | 0.9 | 3.5 | 0.00 | 0.28 | 0.04 | 75 | 1015.3 |
| 20260505193503 | 62 | 104 | 0.9 | 3.5 | 0.00 | 0.28 | 0.04 | 75 | 1015.3 |
| 20260505193449 | 62 | 117 | 0.9 | 3.5 | 0.00 | 0.28 | 0.04 | 75 | 1015.2 |
| 20260505193244 | 62 | 108 | 0.9 | 3.5 | 0.00 | 0.28 | 0.04 | 75 | 1015.3 |
| 20260505193141 | 62 | 347 | 0.9 | 3.5 | 0.00 | 0.28 | 0.04 | 75 | 1015.2 |
| 20260505193042 | 62 | 347 | 0.9 | 3.5 | 0.00 | 0.28 | 0.04 | 76 | 1015.3 |
| 20260505192940 | 63 | 346 | 0.9 | 3.5 | 0.00 | 0.28 | 0.04 | 75 | 1015.3 |
| 20260505192839 | 63 | 71 | 0.0 | 2.6 | 0.00 | 0.28 | 0.04 | 76 | 1015.3 |
| 20260505192732 | 63 | 18 | 0.0 | 2.6 | 0.00 | 0.28 | 0.04 | 76 | 1015.3 |
| 20260505192632 | 63 | 15 | 0.0 | 2.6 | 0.00 | 0.28 | 0.04 | 77 | 1015.3 |
| 20260505192532 | 63 | 45 | 0.0 | 1.7 | 0.00 | 0.28 | 0.04 | 76 | 1015.3 |
| 20260505192432 | 63 | 46 | 0.0 | 1.7 | 0.00 | 0.28 | 0.04 | 76 | 1015.3 |
| 20260505192333 | 62 | 95 | 0.0 | 1.7 | 0.00 | 0.28 | 0.04 | 77 | 1015.3 |
| 20260505192227 | 62 | 76 | 0.0 | 2.6 | 0.00 | 0.28 | 0.04 | 77 | 1015.3 |
| 20260505192127 | 62 | 346 | 0.0 | 2.6 | 0.00 | 0.28 | 0.04 | 77 | 1015.3 |
| 20260505192052 | 62 | 314 | 0.0 | 2.6 | 0.00 | 0.28 | 0.04 | 76 | 1015.3 |
| 20260505192027 | 62 | 315 | 0.0 | 2.6 | 0.00 | 0.28 | 0.04 | 76 | 1015.3 |
| 20260505191941 | 62 | 315 | 0.0 | 2.6 | 0.00 | 0.28 | 0.04 | 76 | 1015.3 |
| 20260505191931 | 62 | 314 | 0.0 | 2.6 | 0.00 | 0.28 | 0.04 | 76 | 1015.3 |
| 20260505191726 | 62 | 315 | 0.9 | 2.6 | 0.00 | 0.28 | 0.04 | 77 | 1015.3 |
| 20260505191623 | 62 | 315 | 0.9 | 2.6 | 0.00 | 0.28 | 0.04 | 77 | 1015.3 |
| 20260505191523 | 62 | 315 | 0.9 | 2.6 | 0.00 | 0.28 | 0.04 | 76 | 1015.3 |
| 20260505191421 | 62 | 315 | 0.9 | 2.6 | 0.00 | 0.28 | 0.04 | 77 | 1015.3 |
| 20260505191322 | 62 | 315 | 0.0 | 2.6 | 0.00 | 0.28 | 0.04 | 77 | 1015.3 |
| 20260505191213 | 62 | 311 | 0.0 | 2.6 | 0.00 | 0.28 | 0.04 | 78 | 1015.3 |
| 20260505191114 | 62 | 310 | 0.0 | 2.6 | 0.00 | 0.28 | 0.04 | 78 | 1015.3 |
| 20260505191013 | 62 | 310 | 0.9 | 2.6 | 0.00 | 0.28 | 0.04 | 77 | 1015.3 |
| 20260505190914 | 62 | 311 | 0.9 | 2.6 | 0.00 | 0.28 | 0.04 | 77 | 1015.2 |
| 20260505190815 | 62 | 311 | 0.9 | 2.6 | 0.00 | 0.28 | 0.04 | 76 | 1015.3 |
| 20260505190714 | 62 | 310 | 0.9 | 2.6 | 0.00 | 0.28 | 0.04 | 77 | 1015.2 |
| 20260505190612 | 62 | 314 | 0.9 | 2.6 | 0.00 | 0.28 | 0.04 | 77 | 1015.3 |
| 20260505190512 | 62 | 314 | 0.9 | 2.6 | 0.00 | 0.28 | 0.04 | 79 | 1015.3 |
| 20260505190409 | 62 | 314 | 0.9 | 2.6 | 0.00 | 0.28 | 0.04 | 77 | 1015.3 |
| 20260505190309 | 62 | 314 | 0.9 | 2.6 | 0.00 | 0.28 | 0.04 | 77 | 1015.3 |
| 20260505190207 | 62 | 314 | 0.9 | 2.6 | 0.00 | 0.28 | 0.04 | 76 | 1015.3 |
| 20260505190106 | 62 | 314 | 0.9 | 2.6 | 0.00 | 0.28 | 0.04 | 76 | 1015.3 |
| 20260505190006 | 62 | 328 | 0.9 | 4.3 | 0.00 | 0.28 | 0.04 | 76 | 1015.3 |
| 20260505185903 | 63 | 326 | 0.9 | 4.3 | 0.00 | 0.28 | 0.04 | 76 | 1015.2 |
| 20260505185804 | 63 | 346 | 0.9 | 4.3 | 0.00 | 0.28 | 0.04 | 76 | 1015.3 |
| 20260505185701 | 63 | 335 | 0.9 | 4.3 | 0.00 | 0.28 | 0.04 | 76 | 1015.2 |
| 20260505185600 | 63 | 342 | 0.9 | 4.3 | 0.00 | 0.28 | 0.04 | 77 | 1015.2 |
| 20260505185500 | 63 | 328 | 0.9 | 4.3 | 0.00 | 0.28 | 0.04 | 76 | 1015.3 |
| 20260505185358 | 63 | 29 | 0.9 | 4.3 | 0.00 | 0.28 | 0.04 | 75 | 1015.2 |
| 20260505185258 | 63 | 15 | 0.9 | 4.3 | 0.00 | 0.28 | 0.04 | 75 | 1015.2 |
| 20260505185152 | 63 | 34 | 0.9 | 4.3 | 0.00 | 0.28 | 0.04 | 75 | 1015.2 |
| 20260505185051 | 63 | 0 | 0.9 | 4.3 | 0.00 | 0.28 | 0.04 | 75 | 1015.2 |
| 20260505184951 | 64 | 6 | 0.9 | 3.5 | 0.00 | 0.28 | 0.04 | 74 | 1015.2 |
| 20260505184852 | 64 | 343 | 0.9 | 3.5 | 0.00 | 0.28 | 0.04 | 75 | 1015.2 |
| 20260505184751 | 63 | 343 | 0.9 | 3.5 | 0.00 | 0.28 | 0.04 | 75 | 1015.2 |
| 20260505184645 | 63 | 50 | 0.9 | 3.5 | 0.00 | 0.28 | 0.04 | 76 | 1015.2 |
| 20260505184545 | 63 | 49 | 0.9 | 3.5 | 0.00 | 0.28 | 0.04 | 75 | 1015.2 |
| 20260505184445 | 63 | 61 | 0.9 | 3.5 | 0.00 | 0.28 | 0.04 | 76 | 1015.1 |
| 20260505184346 | 63 | 127 | 0.9 | 3.5 | 0.00 | 0.28 | 0.04 | 77 | 1015.1 |
| 20260505184247 | 62 | 127 | 0.9 | 3.5 | 0.00 | 0.28 | 0.04 | 76 | 1015.1 |
| 20260505184140 | 62 | 127 | 1.7 | 3.5 | 0.00 | 0.28 | 0.04 | 77 | 1015.1 |
| 20260505184039 | 62 | 158 | 1.7 | 3.5 | 0.00 | 0.28 | 0.04 | 78 | 1015.1 |
| 20260505183939 | 62 | 155 | 1.7 | 4.3 | 0.00 | 0.28 | 0.04 | 79 | 1015.1 |
| 20260505183840 | 62 | 68 | 1.7 | 4.3 | 0.00 | 0.28 | 0.04 | 77 | 1015.1 |
| 20260505183738 | 62 | 71 | 1.7 | 4.3 | 0.00 | 0.28 | 0.04 | 78 | 1015.1 |
| 20260505183634 | 62 | 143 | 1.7 | 4.3 | 0.00 | 0.28 | 0.04 | 78 | 1015.2 |
| 20260505183531 | 62 | 121 | 1.7 | 4.3 | 0.00 | 0.28 | 0.04 | 78 | 1015.1 |
| 20260505183431 | 62 | 186 | 1.7 | 4.3 | 0.00 | 0.28 | 0.04 | 78 | 1015.2 |
| 20260505183332 | 61 | 126 | 1.7 | 4.3 | 0.00 | 0.28 | 0.04 | 78 | 1015.2 |
| 20260505183234 | 62 | 111 | 0.9 | 4.3 | 0.00 | 0.28 | 0.04 | 78 | 1015.2 |
| 20260505183128 | 62 | 45 | 0.9 | 4.3 | 0.00 | 0.28 | 0.04 | 77 | 1015.2 |
| 20260505183027 | 62 | 95 | 0.9 | 4.3 | 0.00 | 0.28 | 0.04 | 77 | 1015.2 |
| 20260505182927 | 62 | 142 | 0.9 | 3.5 | 0.00 | 0.28 | 0.04 | 78 | 1015.2 |
| 20260505182828 | 62 | 143 | 0.9 | 3.5 | 0.00 | 0.28 | 0.04 | 78 | 1015.2 |
| 20260505182728 | 62 | 205 | 0.9 | 3.5 | 0.00 | 0.28 | 0.04 | 78 | 1015.2 |
| 20260505182624 | 62 | 135 | 0.9 | 3.5 | 0.00 | 0.28 | 0.04 | 78 | 1015.2 |
| 20260505182524 | 62 | 139 | 0.9 | 3.5 | 0.00 | 0.28 | 0.04 | 78 | 1015.2 |
| 20260505182423 | 62 | 104 | 0.9 | 3.5 | 0.00 | 0.28 | 0.04 | 78 | 1015.2 |
| 20260505182321 | 62 | 104 | 0.9 | 3.5 | 0.00 | 0.28 | 0.04 | 78 | 1015.2 |
| 20260505182221 | 62 | 150 | 0.9 | 3.5 | 0.00 | 0.28 | 0.04 | 78 | 1015.2 |
| 20260505182115 | 62 | 169 | 0.9 | 3.5 | 0.00 | 0.28 | 0.04 | 78 | 1015.2 |
| 20260505182014 | 62 | 103 | 0.0 | 1.7 | 0.00 | 0.28 | 0.04 | 78 | 1015.2 |
| 20260505181913 | 62 | 231 | 0.9 | 1.7 | 0.00 | 0.28 | 0.04 | 78 | 1015.2 |
| 20260505181814 | 62 | 167 | 0.9 | 1.7 | 0.00 | 0.28 | 0.04 | 79 | 1015.2 |
| 20260505181716 | 62 | 232 | 0.9 | 2.6 | 0.00 | 0.28 | 0.04 | 78 | 1015.2 |
| 20260505181610 | 62 | 243 | 0.9 | 2.6 | 0.00 | 0.28 | 0.04 | 78 | 1015.2 |
| 20260505181510 | 62 | 233 | 0.9 | 2.6 | 0.00 | 0.28 | 0.04 | 80 | 1015.2 |
| 20260505181431 | 62 | 243 | 0.9 | 2.6 | 0.00 | 0.28 | 0.04 | 77 | 1015.1 |
| 20260505181409 | 62 | 233 | 0.9 | 2.6 | 0.00 | 0.28 | 0.04 | 78 | 1015.2 |
| 20260505181325 | 62 | 233 | 0.9 | 2.6 | 0.00 | 0.28 | 0.04 | 78 | 1015.1 |
| 20260505181314 | 62 | 243 | 0.9 | 2.6 | 0.00 | 0.28 | 0.04 | 77 | 1015.1 |
| 20260505181101 | 62 | 236 | 0.9 | 2.6 | 0.00 | 0.28 | 0.04 | 78 | 1015.1 |
| 20260505181002 | 62 | 197 | 0.9 | 2.6 | 0.00 | 0.28 | 0.04 | 78 | 1015.1 |
| 20260505180901 | 62 | 163 | 0.9 | 2.6 | 0.00 | 0.28 | 0.04 | 78 | 1015.1 |
| 20260505180801 | 62 | 217 | 0.0 | 2.6 | 0.00 | 0.28 | 0.04 | 79 | 1015.1 |
| 20260505180705 | 61 | 27 | 0.9 | 2.6 | 0.00 | 0.28 | 0.04 | 78 | 1015.1 |
| 20260505180557 | 61 | 26 | 0.9 | 2.6 | 0.00 | 0.28 | 0.04 | 78 | 1015.1 |
| 20260505180455 | 61 | 26 | 0.9 | 3.5 | 0.00 | 0.28 | 0.04 | 77 | 1015.0 |
| 20260505180359 | 61 | 27 | 0.9 | 3.5 | 0.00 | 0.28 | 0.04 | 77 | 1015.0 |
| 20260505180255 | 61 | 26 | 0.9 | 3.5 | 0.00 | 0.28 | 0.04 | 78 | 1015.0 |
| 20260505180158 | 61 | 337 | 0.9 | 3.5 | 0.00 | 0.28 | 0.04 | 79 | 1015.0 |
| 20260505180049 | 61 | 338 | 0.9 | 3.5 | 0.00 | 0.28 | 0.04 | 81 | 1015.0 |
| 20260505175950 | 61 | 338 | 0.9 | 3.5 | 0.00 | 0.28 | 0.04 | 81 | 1015.0 |
| 20260505175850 | 61 | 108 | 1.7 | 3.5 | 0.00 | 0.28 | 0.04 | 81 | 1015.0 |
| 20260505175749 | 61 | 142 | 0.9 | 3.5 | 0.00 | 0.28 | 0.04 | 81 | 1015.0 |
| 20260505175652 | 61 | 141 | 0.9 | 3.5 | 0.00 | 0.28 | 0.04 | 82 | 1015.1 |
| 20260505175543 | 60 | 146 | 0.9 | 3.5 | 0.00 | 0.28 | 0.04 | 84 | 1015.0 |
| 20260505175444 | 60 | 143 | 0.9 | 2.6 | 0.00 | 0.28 | 0.04 | 84 | 1015.0 |
| 20260505175343 | 60 | 72 | 0.9 | 3.5 | 0.00 | 0.28 | 0.04 | 84 | 1015.0 |
| 20260505175244 | 60 | 149 | 0.9 | 3.5 | 0.00 | 0.28 | 0.04 | 84 | 1015.0 |
| 20260505175146 | 59 | 139 | 1.7 | 4.3 | 0.00 | 0.28 | 0.04 | 84 | 1015.0 |
| 20260505175041 | 59 | 103 | 1.7 | 4.3 | 0.00 | 0.28 | 0.04 | 85 | 1015.0 |
| 20260505174941 | 59 | 151 | 1.7 | 4.3 | 0.00 | 0.28 | 0.04 | 85 | 1015.0 |
| 20260505174841 | 59 | 158 | 1.7 | 4.3 | 0.00 | 0.28 | 0.04 | 85 | 1015.0 |
| 20260505174739 | 59 | 158 | 1.7 | 4.3 | 0.00 | 0.28 | 0.04 | 85 | 1015.0 |
| 20260505174640 | 59 | 217 | 1.7 | 4.3 | 0.00 | 0.28 | 0.04 | 85 | 1015.0 |
| 20260505174531 | 58 | 198 | 1.7 | 4.3 | 0.00 | 0.28 | 0.04 | 85 | 1015.0 |
| 20260505174432 | 58 | 225 | 1.7 | 4.3 | 0.00 | 0.28 | 0.04 | 86 | 1015.0 |
| 20260505174401 | 58 | 144 | 0.9 | 3.5 | 0.00 | 0.28 | 0.04 | 86 | 1015.1 |
| 20260505174332 | 58 | 194 | 1.7 | 4.3 | 0.00 | 0.28 | 0.04 | 87 | 1015.0 |
| 20260505174248 | 58 | 145 | 1.7 | 3.5 | 0.00 | 0.28 | 0.04 | 87 | 1015.1 |
| 20260505174238 | 58 | 144 | 0.9 | 3.5 | 0.00 | 0.28 | 0.04 | 86 | 1015.1 |
| 20260505174026 | 58 | 120 | 0.9 | 3.5 | 0.00 | 0.28 | 0.04 | 86 | 1015.1 |
| 20260505173925 | 58 | 126 | 0.9 | 3.5 | 0.00 | 0.28 | 0.04 | 86 | 1015.1 |
| 20260505173848 | 58 | 193 | 0.9 | 3.5 | 0.00 | 0.28 | 0.04 | 86 | 1015.0 |
| 20260505173825 | 58 | 226 | 0.9 | 3.5 | 0.00 | 0.28 | 0.04 | 86 | 1015.1 |
| 20260505173741 | 58 | 123 | 0.9 | 3.5 | 0.00 | 0.28 | 0.04 | 86 | 1015.1 |
| 20260505173731 | 58 | 193 | 0.9 | 3.5 | 0.00 | 0.28 | 0.04 | 86 | 1015.0 |
| 20260505173521 | 58 | 158 | 0.9 | 3.5 | 0.00 | 0.28 | 0.04 | 87 | 1015.1 |
| 20260505173419 | 58 | 142 | 0.9 | 3.5 | 0.00 | 0.28 | 0.04 | 87 | 1015.1 |
| 20260505173320 | 58 | 143 | 0.9 | 3.5 | 0.00 | 0.28 | 0.04 | 87 | 1015.0 |
| 20260505173220 | 58 | 140 | 0.9 | 3.5 | 0.00 | 0.28 | 0.04 | 88 | 1015.1 |
| 20260505173123 | 58 | 217 | 0.9 | 3.5 | 0.00 | 0.28 | 0.04 | 88 | 1015.1 |
| 20260505173014 | 58 | 144 | 0.9 | 3.5 | 0.00 | 0.28 | 0.04 | 88 | 1015.0 |
| 20260505172914 | 58 | 162 | 0.9 | 3.5 | 0.00 | 0.28 | 0.04 | 88 | 1015.0 |
| 20260505172813 | 58 | 153 | 1.7 | 3.5 | 0.00 | 0.28 | 0.04 | 88 | 1015.1 |
| 20260505172713 | 57 | 153 | 1.7 | 3.5 | 0.00 | 0.28 | 0.04 | 87 | 1015.0 |
| 20260505172618 | 58 | 143 | 1.7 | 3.5 | 0.00 | 0.28 | 0.04 | 88 | 1015.1 |
| 20260505172510 | 57 | 95 | 1.7 | 3.5 | 0.00 | 0.28 | 0.04 | 88 | 1015.1 |
| 20260505172408 | 57 | 110 | 1.7 | 4.3 | 0.00 | 0.28 | 0.04 | 88 | 1015.1 |
| 20260505172307 | 57 | 148 | 1.7 | 4.3 | 0.00 | 0.28 | 0.04 | 88 | 1015.0 |
| 20260505172207 | 57 | 124 | 1.7 | 4.3 | 0.00 | 0.28 | 0.04 | 88 | 1015.0 |
| 20260505172110 | 57 | 132 | 1.7 | 4.3 | 0.00 | 0.28 | 0.04 | 89 | 1015.0 |
| 20260505172004 | 57 | 138 | 1.7 | 4.3 | 0.00 | 0.28 | 0.04 | 88 | 1015.0 |
| 20260505171901 | 57 | 215 | 1.7 | 4.3 | 0.00 | 0.28 | 0.04 | 88 | 1015.0 |
| 20260505171802 | 57 | 224 | 0.9 | 4.3 | 0.00 | 0.28 | 0.04 | 88 | 1015.0 |
| 20260505171702 | 57 | 210 | 0.9 | 4.3 | 0.00 | 0.28 | 0.04 | 89 | 1015.0 |
| 20260505171603 | 57 | 160 | 0.9 | 4.3 | 0.00 | 0.28 | 0.04 | 89 | 1014.9 |
| 20260505171457 | 57 | 149 | 0.9 | 4.3 | 0.00 | 0.28 | 0.04 | 89 | 1015.0 |
| 20260505171359 | 57 | 188 | 0.9 | 4.3 | 0.00 | 0.28 | 0.04 | 89 | 1015.0 |
| 20260505171257 | 57 | 212 | 0.9 | 4.3 | 0.00 | 0.28 | 0.04 | 89 | 1015.0 |
| 20260505171157 | 57 | 198 | 0.9 | 4.3 | 0.00 | 0.28 | 0.04 | 88 | 1015.0 |
| 20260505171057 | 57 | 245 | 0.9 | 4.3 | 0.00 | 0.28 | 0.04 | 89 | 1014.9 |
| 20260505170953 | 57 | 262 | 0.9 | 4.3 | 0.00 | 0.28 | 0.04 | 89 | 1014.9 |
| 20260505170854 | 57 | 210 | 0.9 | 4.3 | 0.00 | 0.28 | 0.04 | 89 | 1015.0 |
| 20260505170753 | 57 | 210 | 1.7 | 4.3 | 0.00 | 0.28 | 0.04 | 90 | 1014.9 |
| 20260505170652 | 57 | 203 | 1.7 | 4.3 | 0.00 | 0.28 | 0.04 | 89 | 1015.0 |
| 20260505170552 | 57 | 132 | 0.9 | 4.3 | 0.00 | 0.28 | 0.04 | 89 | 1014.9 |
| 20260505170443 | 57 | 217 | 0.9 | 3.5 | 0.00 | 0.28 | 0.04 | 90 | 1014.9 |
| 20260505170344 | 57 | 215 | 0.9 | 3.5 | 0.00 | 0.28 | 0.04 | 90 | 1014.9 |
| 20260505170318 | 57 | 128 | 1.7 | 3.5 | 0.00 | 0.28 | 0.04 | 90 | 1014.9 |
| 20260505170243 | 57 | 165 | 0.9 | 3.5 | 0.00 | 0.28 | 0.04 | 90 | 1014.9 |
| 20260505170214 | 57 | 125 | 0.9 | 3.5 | 0.00 | 0.28 | 0.04 | 90 | 1014.9 |
| 20260505170204 | 57 | 128 | 1.7 | 3.5 | 0.00 | 0.28 | 0.04 | 90 | 1014.9 |
| 20260505165937 | 57 | 211 | 1.7 | 6.1 | 0.00 | 0.28 | 0.04 | 90 | 1015.0 |
| 20260505165838 | 57 | 163 | 1.7 | 6.1 | 0.00 | 0.28 | 0.04 | 90 | 1014.9 |
| 20260505165758 | 57 | 116 | 1.7 | 6.1 | 0.00 | 0.28 | 0.04 | 90 | 1014.9 |
| 20260505165738 | 57 | 153 | 1.7 | 6.1 | 0.00 | 0.28 | 0.04 | 90 | 1014.9 |
| 20260505165655 | 57 | 146 | 1.7 | 6.1 | 0.00 | 0.28 | 0.04 | 90 | 1015.0 |
| 20260505165643 | 57 | 116 | 1.7 | 6.1 | 0.00 | 0.28 | 0.04 | 90 | 1014.9 |
| 20260505165432 | 57 | 217 | 1.7 | 6.1 | 0.00 | 0.28 | 0.04 | 90 | 1014.9 |
| 20260505165332 | 57 | 143 | 1.7 | 6.1 | 0.00 | 0.28 | 0.04 | 90 | 1015.0 |
| 20260505165232 | 57 | 233 | 1.7 | 6.1 | 0.00 | 0.28 | 0.04 | 90 | 1015.0 |
| 20260505165132 | 57 | 195 | 1.7 | 6.1 | 0.00 | 0.28 | 0.04 | 90 | 1015.0 |
| 20260505165033 | 57 | 141 | 1.7 | 6.1 | 0.00 | 0.28 | 0.04 | 90 | 1015.0 |
| 20260505164930 | 57 | 218 | 0.9 | 5.2 | 0.00 | 0.28 | 0.04 | 90 | 1015.0 |
| 20260505164830 | 57 | 217 | 0.9 | 3.5 | 0.00 | 0.28 | 0.04 | 91 | 1015.0 |
| 20260505164728 | 57 | 146 | 1.7 | 3.5 | 0.00 | 0.28 | 0.04 | 91 | 1015.0 |
| 20260505164627 | 57 | 145 | 1.7 | 4.3 | 0.00 | 0.28 | 0.04 | 91 | 1015.0 |
| 20260505164528 | 57 | 119 | 1.7 | 4.3 | 0.00 | 0.28 | 0.04 | 91 | 1015.0 |
| 20260505164419 | 57 | 141 | 1.7 | 4.3 | 0.00 | 0.28 | 0.04 | 92 | 1015.0 |
| 20260505164319 | 56 | 125 | 1.7 | 4.3 | 0.00 | 0.28 | 0.04 | 91 | 1014.9 |
| 20260505164220 | 56 | 152 | 1.7 | 5.2 | 0.00 | 0.28 | 0.04 | 91 | 1015.0 |
| 20260505164120 | 56 | 141 | 1.7 | 5.2 | 0.00 | 0.28 | 0.04 | 91 | 1015.0 |
| 20260505164022 | 56 | 202 | 1.7 | 5.2 | 0.00 | 0.28 | 0.04 | 91 | 1015.0 |
| 20260505163913 | 56 | 139 | 1.7 | 5.2 | 0.00 | 0.28 | 0.04 | 91 | 1014.9 |
| 20260505163814 | 56 | 120 | 1.7 | 5.2 | 0.00 | 0.28 | 0.04 | 92 | 1015.0 |
| 20260505163713 | 56 | 117 | 1.7 | 5.2 | 0.00 | 0.28 | 0.04 | 92 | 1014.9 |
| 20260505163613 | 56 | 119 | 1.7 | 5.2 | 0.00 | 0.28 | 0.04 | 91 | 1014.9 |
| 20260505163514 | 56 | 181 | 1.7 | 5.2 | 0.00 | 0.28 | 0.04 | 91 | 1014.9 |
| 20260505163410 | 56 | 121 | 1.7 | 5.2 | 0.00 | 0.28 | 0.04 | 91 | 1015.0 |
| 20260505163308 | 56 | 129 | 1.7 | 5.2 | 0.00 | 0.28 | 0.04 | 91 | 1014.9 |
| 20260505163207 | 56 | 141 | 1.7 | 4.3 | 0.00 | 0.28 | 0.04 | 91 | 1014.9 |
| 20260505163107 | 56 | 179 | 1.7 | 4.3 | 0.00 | 0.28 | 0.04 | 92 | 1014.9 |
| 20260505163010 | 56 | 163 | 0.9 | 4.3 | 0.00 | 0.28 | 0.04 | 92 | 1014.9 |
| 20260505162903 | 56 | 133 | 0.9 | 4.3 | 0.00 | 0.28 | 0.04 | 92 | 1014.9 |
| 20260505162803 | 56 | 129 | 0.9 | 4.3 | 0.00 | 0.28 | 0.04 | 92 | 1014.9 |
| 20260505162704 | 56 | 145 | 0.9 | 4.3 | 0.00 | 0.28 | 0.04 | 92 | 1014.9 |
| 20260505162604 | 56 | 224 | 0.9 | 4.3 | 0.00 | 0.28 | 0.04 | 92 | 1014.9 |
| 20260505162503 | 56 | 197 | 0.9 | 4.3 | 0.00 | 0.28 | 0.04 | 92 | 1014.9 |
| 20260505162357 | 56 | 165 | 0.9 | 4.3 | 0.00 | 0.28 | 0.04 | 92 | 1014.9 |
| 20260505162255 | 56 | 165 | 0.9 | 4.3 | 0.00 | 0.28 | 0.04 | 92 | 1014.9 |
| 20260505162156 | 56 | 236 | 0.9 | 4.3 | 0.00 | 0.28 | 0.04 | 92 | 1014.9 |
| 20260505162056 | 56 | 241 | 0.9 | 4.3 | 0.00 | 0.28 | 0.04 | 92 | 1014.9 |
| 20260505161958 | 56 | 214 | 0.9 | 4.3 | 0.00 | 0.28 | 0.04 | 92 | 1014.9 |
| 20260505161852 | 56 | 120 | 0.9 | 4.3 | 0.00 | 0.28 | 0.04 | 92 | 1014.9 |
| 20260505161749 | 56 | 144 | 0.9 | 3.5 | 0.00 | 0.28 | 0.04 | 92 | 1014.9 |
| 20260505161650 | 56 | 158 | 0.9 | 3.5 | 0.00 | 0.28 | 0.04 | 93 | 1014.9 |
| 20260505161549 | 56 | 146 | 0.9 | 3.5 | 0.00 | 0.28 | 0.04 | 93 | 1014.9 |
| 20260505161451 | 56 | 142 | 0.9 | 3.5 | 0.00 | 0.28 | 0.04 | 93 | 1014.9 |
| 20260505161345 | 56 | 142 | 0.9 | 3.5 | 0.00 | 0.28 | 0.04 | 93 | 1014.9 |
| 20260505161246 | 56 | 131 | 0.9 | 3.5 | 0.00 | 0.28 | 0.04 | 93 | 1014.9 |
| 20260505161145 | 56 | 181 | 0.9 | 3.5 | 0.00 | 0.28 | 0.04 | 93 | 1014.9 |
| 20260505161045 | 56 | 134 | 0.9 | 3.5 | 0.00 | 0.28 | 0.04 | 93 | 1014.8 |
| 20260505160958 | 56 | 151 | 0.9 | 3.5 | 0.00 | 0.28 | 0.04 | 93 | 1014.9 |
| 20260505160839 | 55 | 136 | 0.9 | 3.5 | 0.00 | 0.28 | 0.04 | 93 | 1014.9 |
| 20260505160738 | 56 | 131 | 0.9 | 3.5 | 0.00 | 0.28 | 0.04 | 93 | 1014.9 |
| 20260505160638 | 55 | 108 | 0.9 | 3.5 | 0.00 | 0.28 | 0.04 | 93 | 1014.9 |
| 20260505160537 | 55 | 210 | 0.9 | 3.5 | 0.00 | 0.28 | 0.04 | 93 | 1014.9 |
| 20260505160439 | 55 | 150 | 0.9 | 2.6 | 0.00 | 0.28 | 0.04 | 93 | 1014.9 |
| 20260505160331 | 55 | 162 | 0.9 | 2.6 | 0.00 | 0.28 | 0.04 | 93 | 1014.9 |
| 20260505160232 | 55 | 143 | 0.9 | 2.6 | 0.00 | 0.28 | 0.04 | 93 | 1014.8 |
| 20260505160131 | 55 | 143 | 0.9 | 2.6 | 0.00 | 0.28 | 0.04 | 93 | 1014.9 |
| 20260505153258 | 54 | 174 | 0.9 | 5.2 | 0.00 | 0.28 | 0.04 | 93 | 1014.8 |
| 20260505153156 | 54 | 134 | 0.9 | 5.2 | 0.00 | 0.28 | 0.04 | 93 | 1014.8 |
| 20260505153055 | 54 | 134 | 0.9 | 5.2 | 0.00 | 0.28 | 0.04 | 93 | 1014.8 |
| 20260505152955 | 54 | 151 | 0.9 | 5.2 | 0.00 | 0.28 | 0.04 | 93 | 1014.8 |
| 20260505152857 | 54 | 124 | 0.9 | 5.2 | 0.00 | 0.28 | 0.04 | 93 | 1014.8 |
| 20260505152751 | 54 | 124 | 1.7 | 5.2 | 0.00 | 0.28 | 0.04 | 93 | 1014.7 |
| 20260505152652 | 54 | 146 | 1.7 | 5.2 | 0.00 | 0.28 | 0.04 | 93 | 1014.7 |
| 20260505152552 | 54 | 129 | 1.7 | 5.2 | 0.00 | 0.28 | 0.04 | 93 | 1014.7 |
| 20260505152451 | 54 | 134 | 0.9 | 5.2 | 0.00 | 0.28 | 0.04 | 93 | 1014.7 |
| 20260505152356 | 54 | 134 | 1.7 | 5.2 | 0.00 | 0.28 | 0.04 | 93 | 1014.7 |
| 20260505152244 | 54 | 129 | 0.9 | 5.2 | 0.00 | 0.28 | 0.04 | 93 | 1014.7 |
| 20260505152143 | 54 | 131 | 0.9 | 5.2 | 0.00 | 0.28 | 0.04 | 93 | 1014.6 |
| 20260505152043 | 54 | 179 | 0.9 | 5.2 | 0.00 | 0.28 | 0.04 | 93 | 1014.6 |
| 20260505151944 | 54 | 131 | 0.9 | 5.2 | 0.00 | 0.29 | 0.04 | 93 | 1014.7 |
| 20260505151846 | 54 | 162 | 0.9 | 4.3 | 0.00 | 0.29 | 0.04 | 93 | 1014.7 |
| 20260505151737 | 54 | 150 | 0.9 | 3.5 | 0.00 | 0.29 | 0.04 | 93 | 1014.6 |
| 20260505151638 | 54 | 117 | 0.9 | 3.5 | 0.00 | 0.29 | 0.04 | 93 | 1014.6 |
| 20260505151538 | 54 | 196 | 0.9 | 3.5 | 0.00 | 0.29 | 0.04 | 93 | 1014.6 |
| 20260505151437 | 54 | 163 | 0.9 | 4.3 | 0.00 | 0.29 | 0.04 | 93 | 1014.6 |
| 20260505151338 | 54 | 138 | 0.9 | 4.3 | 0.00 | 0.29 | 0.04 | 93 | 1014.6 |
| 20260505151236 | 54 | 121 | 0.9 | 4.3 | 0.00 | 0.29 | 0.04 | 93 | 1014.6 |
| 20260505151135 | 54 | 203 | 1.7 | 4.3 | 0.00 | 0.29 | 0.04 | 93 | 1014.6 |
| 20260505151036 | 54 | 134 | 1.7 | 4.3 | 0.00 | 0.29 | 0.04 | 93 | 1014.6 |
| 20260505150934 | 54 | 146 | 1.7 | 4.3 | 0.00 | 0.29 | 0.04 | 93 | 1014.6 |
| 20260505150832 | 54 | 134 | 0.9 | 4.3 | 0.00 | 0.29 | 0.04 | 93 | 1014.6 |
| 20260505150728 | 54 | 113 | 0.9 | 4.3 | 0.00 | 0.29 | 0.04 | 93 | 1014.6 |
| 20260505150626 | 54 | 139 | 0.9 | 4.3 | 0.00 | 0.29 | 0.04 | 93 | 1014.6 |
| 20260505150526 | 54 | 135 | 0.9 | 4.3 | 0.00 | 0.29 | 0.04 | 92 | 1014.6 |
| 20260505150426 | 54 | 150 | 0.9 | 2.6 | 0.00 | 0.29 | 0.04 | 92 | 1014.5 |
| 20260505150339 | 54 | 101 | 0.9 | 4.3 | 0.00 | 0.29 | 0.04 | 92 | 1014.5 |
| 20260505150222 | 54 | 147 | 0.9 | 4.3 | 0.00 | 0.29 | 0.04 | 92 | 1014.5 |
| 20260505150119 | 53 | 150 | 0.9 | 4.3 | 0.00 | 0.29 | 0.04 | 92 | 1014.5 |
| 20260505140616 | 52 | 136 | 0.9 | 2.6 | 0.00 | 0.29 | 0.04 | 92 | 1014.2 |
| 20260505140514 | 52 | 135 | 0.0 | 2.6 | 0.00 | 0.29 | 0.04 | 91 | 1014.2 |
| 20260505140414 | 52 | 139 | 0.0 | 2.6 | 0.00 | 0.29 | 0.04 | 91 | 1014.2 |
| 20260505140313 | 52 | 128 | 0.9 | 2.6 | 0.00 | 0.29 | 0.04 | 91 | 1014.2 |
| 20260505140218 | 52 | 129 | 0.9 | 2.6 | 0.00 | 0.29 | 0.04 | 92 | 1014.2 |
| 20260505140107 | 52 | 104 | 0.9 | 2.6 | 0.00 | 0.29 | 0.04 | 92 | 1014.2 |
| 20260505130301 | 52 | 127 | 1.7 | 5.2 | 0.00 | 0.29 | 0.04 | 91 | 1013.8 |
| 20260505130201 | 52 | 157 | 1.7 | 5.2 | 0.00 | 0.29 | 0.04 | 91 | 1013.9 |
| 20260505130111 | 52 | 134 | 1.7 | 5.2 | 0.00 | 0.29 | 0.04 | 91 | 1013.8 |
| 20260505124945 | 52 | 129 | 0.9 | 3.5 | 0.00 | 0.29 | 0.04 | 91 | 1013.8 |
| 20260505124844 | 52 | 150 | 0.9 | 3.5 | 0.00 | 0.29 | 0.04 | 91 | 1013.8 |
| 20260505124744 | 52 | 124 | 0.9 | 3.5 | 0.00 | 0.29 | 0.04 | 91 | 1013.8 |
| 20260505124643 | 52 | 123 | 0.9 | 3.5 | 0.00 | 0.29 | 0.04 | 91 | 1013.8 |
| 20260505124544 | 52 | 117 | 0.9 | 3.5 | 0.00 | 0.29 | 0.04 | 91 | 1013.7 |
| 20260505124439 | 52 | 136 | 0.9 | 3.5 | 0.00 | 0.29 | 0.04 | 91 | 1013.7 |
| 20260505124340 | 52 | 136 | 0.9 | 3.5 | 0.00 | 0.29 | 0.04 | 91 | 1013.7 |
| 20260505124300 | 52 | 141 | 0.0 | 1.7 | 0.00 | 0.29 | 0.04 | 91 | 1013.7 |
| 20260505124239 | 52 | 137 | 0.9 | 3.5 | 0.00 | 0.29 | 0.04 | 91 | 1013.7 |
| 20260505124154 | 52 | 176 | 0.0 | 3.5 | 0.00 | 0.29 | 0.04 | 91 | 1013.7 |
| 20260505124144 | 52 | 141 | 0.0 | 1.7 | 0.00 | 0.29 | 0.04 | 91 | 1013.7 |
| 20260505123938 | 52 | 141 | 0.0 | 1.7 | 0.00 | 0.29 | 0.04 | 91 | 1013.7 |
| 20260505123835 | 52 | 137 | 0.0 | 1.7 | 0.00 | 0.29 | 0.04 | 91 | 1013.7 |
| 20260505123757 | 52 | 139 | 0.0 | 1.7 | 0.00 | 0.29 | 0.04 | 91 | 1013.6 |
| 20260505123735 | 52 | 134 | 0.0 | 1.7 | 0.00 | 0.29 | 0.04 | 91 | 1013.6 |
| 20260505123649 | 52 | 139 | 0.0 | 1.7 | 0.00 | 0.29 | 0.04 | 91 | 1013.6 |
| 20260505123639 | 52 | 139 | 0.0 | 1.7 | 0.00 | 0.29 | 0.04 | 91 | 1013.6 |
| 20260505123508 | 52 | 136 | 0.9 | 2.6 | 0.00 | 0.29 | 0.04 | 91 | 1013.6 |
| 20260505123431 | 52 | 180 | 0.0 | 2.6 | 0.00 | 0.29 | 0.04 | 91 | 1013.6 |
| 20260505123356 | 52 | 205 | 0.0 | 2.6 | 0.00 | 0.29 | 0.04 | 91 | 1013.7 |
| 20260505123227 | 52 | 173 | 0.9 | 2.6 | 0.00 | 0.29 | 0.04 | 91 | 1013.6 |
| 20260505123141 | 52 | 134 | 0.9 | 2.6 | 0.00 | 0.29 | 0.04 | 91 | 1013.6 |
| 20260505123131 | 52 | 136 | 0.9 | 2.6 | 0.00 | 0.29 | 0.04 | 91 | 1013.6 |
| 20260505122921 | 52 | 137 | 0.9 | 2.6 | 0.00 | 0.29 | 0.04 | 91 | 1013.6 |
| 20260505122819 | 52 | 127 | 0.9 | 2.6 | 0.00 | 0.29 | 0.04 | 91 | 1013.7 |
| 20260505122749 | 52 | 148 | 0.9 | 3.5 | 0.00 | 0.29 | 0.04 | 91 | 1013.7 |
| 20260505122720 | 52 | 224 | 0.9 | 3.5 | 0.00 | 0.29 | 0.04 | 91 | 1013.7 |
| 20260505122636 | 52 | 131 | 0.9 | 3.5 | 0.00 | 0.29 | 0.04 | 91 | 1013.7 |
| 20260505122625 | 52 | 148 | 0.9 | 3.5 | 0.00 | 0.29 | 0.04 | 91 | 1013.7 |
| 20260505122414 | 52 | 141 | 0.9 | 3.5 | 0.00 | 0.29 | 0.04 | 91 | 1013.7 |
| 20260505122314 | 52 | 134 | 0.9 | 3.5 | 0.00 | 0.29 | 0.04 | 91 | 1013.7 |
| 20260505122239 | 52 | 138 | 0.9 | 3.5 | 0.00 | 0.29 | 0.04 | 91 | 1013.7 |
| 20260505122214 | 52 | 134 | 0.9 | 3.5 | 0.00 | 0.29 | 0.04 | 91 | 1013.7 |
| 20260505122130 | 52 | 141 | 0.9 | 3.5 | 0.00 | 0.29 | 0.04 | 91 | 1013.7 |
| 20260505122120 | 52 | 138 | 0.9 | 3.5 | 0.00 | 0.29 | 0.04 | 91 | 1013.7 |
| 20260505121914 | 52 | 147 | 0.9 | 3.5 | 0.00 | 0.29 | 0.04 | 91 | 1013.7 |
| 20260505121811 | 52 | 142 | 0.9 | 3.5 | 0.00 | 0.29 | 0.04 | 91 | 1013.7 |
| 20260505121709 | 52 | 91 | 1.7 | 3.5 | 0.00 | 0.29 | 0.04 | 91 | 1013.7 |
| 20260505121610 | 52 | 147 | 1.7 | 4.3 | 0.00 | 0.29 | 0.04 | 91 | 1013.7 |
| 20260505121509 | 52 | 113 | 1.7 | 4.3 | 0.00 | 0.29 | 0.04 | 91 | 1013.7 |
| 20260505121402 | 52 | 122 | 1.7 | 4.3 | 0.00 | 0.29 | 0.04 | 91 | 1013.7 |
| 20260505121301 | 52 | 132 | 1.7 | 4.3 | 0.00 | 0.29 | 0.04 | 91 | 1013.8 |
| 20260505121201 | 52 | 141 | 0.9 | 4.3 | 0.00 | 0.29 | 0.04 | 91 | 1013.7 |
| 20260505121102 | 52 | 144 | 0.9 | 4.3 | 0.00 | 0.29 | 0.04 | 91 | 1013.7 |
| 20260505121003 | 52 | 144 | 0.9 | 4.3 | 0.00 | 0.29 | 0.04 | 91 | 1013.7 |
| 20260505120855 | 52 | 142 | 0.9 | 4.3 | 0.00 | 0.29 | 0.04 | 91 | 1013.7 |
| 20260505120755 | 52 | 132 | 0.9 | 4.3 | 0.00 | 0.29 | 0.04 | 91 | 1013.8 |
| 20260505120655 | 52 | 135 | 0.9 | 4.3 | 0.00 | 0.29 | 0.04 | 91 | 1013.8 |
| 20260505120555 | 52 | 136 | 0.9 | 4.3 | 0.00 | 0.29 | 0.04 | 91 | 1013.9 |
| 20260505120458 | 52 | 101 | 0.0 | 2.6 | 0.00 | 0.29 | 0.04 | 91 | 1013.8 |
| 20260505120351 | 52 | 134 | 0.0 | 2.6 | 0.00 | 0.29 | 0.04 | 91 | 1013.8 |
| 20260505120249 | 52 | 203 | 0.0 | 2.6 | 0.00 | 0.29 | 0.04 | 91 | 1013.9 |
| 20260505120150 | 52 | 203 | 0.9 | 2.6 | 0.00 | 0.29 | 0.04 | 91 | 1013.9 |
| 20260505120049 | 52 | 124 | 0.9 | 1.7 | 0.00 | 0.29 | 0.04 | 91 | 1013.9 |
| 20260505115951 | 52 | 125 | 0.9 | 1.7 | 0.00 | 0.29 | 0.04 | 91 | 1013.8 |
| 20260505115843 | 52 | 125 | 0.9 | 1.7 | 0.00 | 0.29 | 0.04 | 91 | 1013.8 |
| 20260505115743 | 52 | 125 | 0.9 | 1.7 | 0.00 | 0.29 | 0.04 | 91 | 1013.9 |
| 20260505115644 | 52 | 147 | 0.9 | 2.6 | 0.00 | 0.29 | 0.04 | 91 | 1013.9 |
| 20260505115544 | 52 | 141 | 0.9 | 2.6 | 0.00 | 0.29 | 0.04 | 91 | 1013.9 |
| 20260505115445 | 52 | 141 | 0.9 | 2.6 | 0.00 | 0.29 | 0.04 | 91 | 1013.9 |
| 20260505115338 | 52 | 141 | 0.9 | 2.6 | 0.00 | 0.29 | 0.04 | 91 | 1013.9 |
| 20260505115237 | 52 | 110 | 0.9 | 2.6 | 0.00 | 0.29 | 0.04 | 91 | 1013.8 |
| 20260505115137 | 52 | 162 | 0.9 | 2.6 | 0.00 | 0.29 | 0.04 | 91 | 1013.8 |
| 20260505115037 | 52 | 161 | 0.9 | 2.6 | 0.00 | 0.29 | 0.04 | 91 | 1013.8 |
| 20260505114939 | 52 | 162 | 0.9 | 2.6 | 0.00 | 0.29 | 0.04 | 91 | 1013.8 |
| 20260505114837 | 52 | 164 | 0.9 | 2.6 | 0.00 | 0.29 | 0.04 | 91 | 1013.8 |
| 20260505114735 | 52 | 163 | 0.9 | 4.3 | 0.00 | 0.29 | 0.04 | 91 | 1013.8 |
| 20260505114653 | 52 | 129 | 0.9 | 5.2 | 0.00 | 0.29 | 0.04 | 91 | 1013.8 |
| 20260505114633 | 52 | 141 | 0.9 | 5.2 | 0.00 | 0.29 | 0.04 | 91 | 1013.8 |
| 20260505114548 | 52 | 137 | 0.9 | 5.2 | 0.00 | 0.29 | 0.04 | 91 | 1013.8 |
| 20260505114538 | 52 | 129 | 0.9 | 5.2 | 0.00 | 0.29 | 0.04 | 91 | 1013.8 |
| 20260505114328 | 52 | 200 | 0.9 | 5.2 | 0.00 | 0.29 | 0.04 | 91 | 1013.8 |
| 20260505114226 | 52 | 198 | 0.9 | 5.2 | 0.00 | 0.29 | 0.04 | 91 | 1013.8 |
| 20260505114125 | 52 | 151 | 0.9 | 5.2 | 0.00 | 0.29 | 0.04 | 91 | 1013.8 |
| 20260505114025 | 52 | 132 | 0.9 | 5.2 | 0.00 | 0.29 | 0.04 | 91 | 1013.8 |
| 20260505113929 | 52 | 129 | 0.9 | 5.2 | 0.00 | 0.29 | 0.04 | 91 | 1013.9 |
| 20260505113819 | 52 | 149 | 0.9 | 5.2 | 0.00 | 0.29 | 0.04 | 91 | 1013.9 |
| 20260505113720 | 52 | 146 | 0.9 | 5.2 | 0.00 | 0.29 | 0.04 | 91 | 1013.9 |
| 20260505113619 | 52 | 214 | 0.9 | 1.7 | 0.00 | 0.29 | 0.04 | 91 | 1013.9 |
| 20260505113520 | 52 | 191 | 0.9 | 3.5 | 0.00 | 0.29 | 0.04 | 91 | 1013.9 |
| 20260505113422 | 52 | 131 | 0.9 | 3.5 | 0.00 | 0.29 | 0.04 | 91 | 1013.9 |
| 20260505113320 | 52 | 211 | 0.9 | 3.5 | 0.00 | 0.29 | 0.04 | 91 | 1013.9 |
| 20260505113217 | 52 | 119 | 0.9 | 3.5 | 0.00 | 0.29 | 0.04 | 91 | 1013.9 |
| 20260505113134 | 52 | 118 | 0.9 | 3.5 | 0.00 | 0.29 | 0.04 | 91 | 1014.0 |
| 20260505113117 | 52 | 117 | 0.9 | 3.5 | 0.00 | 0.29 | 0.04 | 91 | 1014.0 |
| 20260505113029 | 52 | 119 | 0.9 | 3.5 | 0.00 | 0.29 | 0.04 | 91 | 1014.0 |
| 20260505113019 | 52 | 118 | 0.9 | 3.5 | 0.00 | 0.29 | 0.04 | 91 | 1014.0 |
| 20260505112813 | 52 | 119 | 0.9 | 3.5 | 0.00 | 0.29 | 0.04 | 91 | 1014.0 |
| 20260505112712 | 52 | 124 | 0.9 | 3.5 | 0.00 | 0.29 | 0.04 | 91 | 1013.9 |
| 20260505112612 | 52 | 132 | 0.9 | 3.5 | 0.00 | 0.29 | 0.04 | 91 | 1013.9 |
| 20260505112510 | 52 | 135 | 0.9 | 3.5 | 0.00 | 0.29 | 0.04 | 91 | 1013.9 |
| 20260505112410 | 52 | 133 | 0.9 | 3.5 | 0.00 | 0.29 | 0.04 | 91 | 1013.8 |
| 20260505112305 | 52 | 200 | 0.9 | 3.5 | 0.00 | 0.29 | 0.04 | 91 | 1013.8 |
| 20260505112203 | 52 | 200 | 0.9 | 3.5 | 0.00 | 0.29 | 0.04 | 91 | 1013.7 |
| 20260505112104 | 52 | 229 | 0.9 | 3.5 | 0.00 | 0.29 | 0.04 | 91 | 1013.7 |
| 20260505112003 | 52 | 231 | 0.9 | 3.5 | 0.00 | 0.29 | 0.04 | 91 | 1013.7 |
| 20260505111902 | 52 | 147 | 0.9 | 3.5 | 0.00 | 0.29 | 0.04 | 91 | 1013.7 |
| 20260505111801 | 52 | 205 | 0.9 | 3.5 | 0.00 | 0.29 | 0.04 | 91 | 1013.7 |
| 20260505111619 | 52 | 138 | 0.9 | 2.6 | 0.00 | 0.29 | 0.04 | 91 | 1013.7 |
| 20260505111559 | 52 | 200 | 0.9 | 3.5 | 0.00 | 0.29 | 0.04 | 91 | 1013.7 |
| 20260505111512 | 52 | 205 | 0.0 | 2.6 | 0.00 | 0.29 | 0.04 | 91 | 1013.7 |
| 20260505111501 | 52 | 138 | 0.9 | 2.6 | 0.00 | 0.29 | 0.04 | 91 | 1013.7 |
| 20260505111250 | 52 | 138 | 0.9 | 2.6 | 0.00 | 0.29 | 0.04 | 91 | 1013.7 |
| 20260505111149 | 52 | 138 | 0.9 | 2.6 | 0.00 | 0.29 | 0.04 | 91 | 1013.8 |
| 20260505111049 | 52 | 138 | 0.9 | 2.6 | 0.00 | 0.29 | 0.04 | 91 | 1013.8 |
| 20260505110949 | 52 | 134 | 0.9 | 2.6 | 0.00 | 0.29 | 0.04 | 91 | 1013.8 |
| 20260505110851 | 52 | 95 | 0.9 | 2.6 | 0.00 | 0.29 | 0.04 | 91 | 1013.8 |
| 20260505110744 | 52 | 147 | 1.7 | 3.5 | 0.00 | 0.29 | 0.04 | 91 | 1013.8 |
| 20260505110643 | 52 | 160 | 1.7 | 3.5 | 0.00 | 0.29 | 0.04 | 91 | 1013.9 |
| 20260505110543 | 52 | 203 | 0.9 | 3.5 | 0.00 | 0.29 | 0.04 | 91 | 1013.9 |
| 20260505110443 | 52 | 210 | 0.9 | 3.5 | 0.00 | 0.29 | 0.04 | 91 | 1013.9 |
| 20260505110345 | 52 | 83 | 0.9 | 3.5 | 0.00 | 0.29 | 0.04 | 91 | 1013.9 |
| 20260505110242 | 52 | 132 | 0.9 | 3.5 | 0.00 | 0.29 | 0.04 | 91 | 1013.9 |
| 20260505110141 | 52 | 129 | 0.9 | 3.5 | 0.00 | 0.29 | 0.04 | 91 | 1013.8 |
| 20260505102149 | 52 | 141 | 0.9 | 3.5 | 0.00 | 0.29 | 0.04 | 91 | 1014.0 |
| 20260505102049 | 52 | 122 | 0.9 | 3.5 | 0.00 | 0.29 | 0.04 | 91 | 1014.0 |
| 20260505101950 | 52 | 148 | 0.9 | 3.5 | 0.00 | 0.29 | 0.04 | 91 | 1014.0 |
| 20260505101849 | 52 | 114 | 0.9 | 3.5 | 0.00 | 0.29 | 0.04 | 91 | 1014.0 |
| 20260505101753 | 52 | 129 | 1.7 | 3.5 | 0.00 | 0.29 | 0.04 | 91 | 1014.0 |
| 20260505101643 | 52 | 152 | 1.7 | 3.5 | 0.00 | 0.29 | 0.04 | 91 | 1014.0 |
| 20260505101544 | 52 | 133 | 1.7 | 3.5 | 0.00 | 0.29 | 0.04 | 91 | 1013.9 |
| 20260505101444 | 52 | 130 | 1.7 | 3.5 | 0.00 | 0.29 | 0.04 | 91 | 1013.9 |
| 20260505101343 | 52 | 145 | 0.9 | 3.5 | 0.00 | 0.29 | 0.04 | 91 | 1013.9 |
| 20260505101246 | 52 | 129 | 0.9 | 3.5 | 0.00 | 0.29 | 0.04 | 91 | 1013.9 |
| 20260505101139 | 52 | 152 | 0.9 | 3.5 | 0.00 | 0.29 | 0.04 | 91 | 1014.0 |
| 20260505101038 | 52 | 145 | 0.9 | 3.5 | 0.00 | 0.29 | 0.04 | 91 | 1014.0 |
| 20260505100939 | 52 | 141 | 0.9 | 3.5 | 0.00 | 0.29 | 0.04 | 91 | 1014.0 |
| 20260505100837 | 52 | 110 | 0.9 | 3.5 | 0.00 | 0.29 | 0.04 | 91 | 1014.1 |
| 20260505100740 | 52 | 138 | 0.9 | 3.5 | 0.00 | 0.29 | 0.04 | 91 | 1014.1 |
| 20260505100631 | 52 | 138 | 0.9 | 3.5 | 0.00 | 0.29 | 0.04 | 91 | 1014.1 |
| 20260505100532 | 52 | 136 | 0.9 | 3.5 | 0.00 | 0.29 | 0.04 | 91 | 1014.1 |
| 20260505100432 | 52 | 139 | 0.9 | 2.6 | 0.00 | 0.29 | 0.04 | 91 | 1014.1 |
| 20260505100331 | 52 | 143 | 0.9 | 2.6 | 0.00 | 0.29 | 0.04 | 91 | 1014.1 |
| 20260505100234 | 52 | 143 | 0.9 | 2.6 | 0.00 | 0.29 | 0.04 | 91 | 1014.1 |
| 20260505100130 | 52 | 129 | 0.9 | 2.6 | 0.00 | 0.29 | 0.04 | 91 | 1014.1 |
| 20260505100029 | 52 | 141 | 0.9 | 2.6 | 0.00 | 0.29 | 0.04 | 91 | 1014.1 |
| 20260505095929 | 52 | 132 | 0.9 | 2.6 | 0.00 | 0.29 | 0.04 | 91 | 1014.1 |
| 20260505095827 | 52 | 133 | 0.9 | 2.6 | 0.00 | 0.29 | 0.04 | 91 | 1014.1 |
| 20260505095728 | 52 | 132 | 0.9 | 2.6 | 0.00 | 0.29 | 0.04 | 91 | 1014.1 |
| 20260505095619 | 52 | 134 | 0.9 | 1.7 | 0.00 | 0.29 | 0.04 | 91 | 1014.2 |
| 20260505095519 | 52 | 134 | 0.9 | 1.7 | 0.00 | 0.29 | 0.04 | 91 | 1014.1 |
| 20260505095419 | 52 | 136 | 0.9 | 1.7 | 0.00 | 0.29 | 0.04 | 91 | 1014.1 |
| 20260505095319 | 52 | 135 | 0.9 | 1.7 | 0.00 | 0.29 | 0.04 | 91 | 1014.1 |
| 20260505095223 | 52 | 136 | 0.9 | 1.7 | 0.00 | 0.29 | 0.04 | 91 | 1014.1 |
| 20260505095118 | 52 | 147 | 0.9 | 1.7 | 0.00 | 0.29 | 0.04 | 91 | 1014.1 |
| 20260505095017 | 52 | 136 | 0.9 | 2.6 | 0.00 | 0.29 | 0.04 | 91 | 1014.1 |
| 20260505094934 | 52 | 118 | 0.9 | 2.6 | 0.00 | 0.29 | 0.04 | 91 | 1014.1 |
| 20260505094917 | 52 | 134 | 0.9 | 2.6 | 0.00 | 0.29 | 0.04 | 91 | 1014.1 |
| 20260505094830 | 52 | 133 | 0.9 | 2.6 | 0.00 | 0.29 | 0.04 | 91 | 1014.1 |
| 20260505094820 | 52 | 118 | 0.9 | 2.6 | 0.00 | 0.29 | 0.04 | 91 | 1014.1 |
| 20260505094611 | 52 | 133 | 0.9 | 2.6 | 0.00 | 0.29 | 0.04 | 91 | 1014.1 |
| 20260505094511 | 52 | 134 | 0.9 | 2.6 | 0.00 | 0.29 | 0.04 | 91 | 1014.1 |
| 20260505094411 | 52 | 134 | 0.9 | 2.6 | 0.00 | 0.29 | 0.04 | 91 | 1014.1 |
| 20260505094309 | 52 | 134 | 0.9 | 3.5 | 0.00 | 0.29 | 0.04 | 91 | 1014.1 |
| 20260505094210 | 52 | 134 | 0.9 | 3.5 | 0.00 | 0.29 | 0.04 | 91 | 1014.0 |
| 20260505094102 | 52 | 138 | 0.9 | 3.5 | 0.00 | 0.29 | 0.04 | 91 | 1014.0 |
| 20260505094001 | 52 | 139 | 0.9 | 3.5 | 0.00 | 0.29 | 0.04 | 91 | 1014.0 |
| 20260505093901 | 52 | 131 | 0.9 | 3.5 | 0.00 | 0.29 | 0.04 | 91 | 1013.9 |
| 20260505093802 | 51 | 131 | 0.9 | 3.5 | 0.00 | 0.29 | 0.04 | 91 | 1013.9 |
| 20260505093702 | 51 | 131 | 0.9 | 3.5 | 0.00 | 0.29 | 0.04 | 91 | 1014.0 |
| 20260505093556 | 51 | 131 | 0.9 | 3.5 | 0.00 | 0.29 | 0.04 | 91 | 1014.0 |
| 20260505093455 | 51 | 129 | 0.9 | 3.5 | 0.00 | 0.29 | 0.04 | 91 | 1014.0 |
| 20260505093427 | 51 | 135 | 0.9 | 2.6 | 0.00 | 0.29 | 0.04 | 91 | 1014.1 |
| 20260505093357 | 51 | 134 | 0.9 | 3.5 | 0.00 | 0.29 | 0.04 | 91 | 1014.1 |
| 20260505093314 | 51 | 141 | 0.9 | 2.6 | 0.00 | 0.29 | 0.04 | 91 | 1014.1 |
| 20260505093304 | 51 | 135 | 0.9 | 2.6 | 0.00 | 0.29 | 0.04 | 91 | 1014.1 |
| 20260505093056 | 51 | 152 | 0.9 | 2.6 | 0.00 | 0.29 | 0.04 | 91 | 1014.1 |
| 20260505092953 | 51 | 134 | 0.9 | 2.6 | 0.00 | 0.29 | 0.04 | 91 | 1014.1 |
| 20260505092853 | 51 | 131 | 0.9 | 2.6 | 0.00 | 0.29 | 0.04 | 91 | 1014.2 |
| 20260505092752 | 51 | 139 | 0.9 | 2.6 | 0.00 | 0.29 | 0.04 | 91 | 1014.1 |
| 20260505092652 | 51 | 134 | 0.9 | 2.6 | 0.00 | 0.29 | 0.04 | 91 | 1014.2 |
| 20260505092546 | 51 | 149 | 0.9 | 2.6 | 0.00 | 0.29 | 0.04 | 91 | 1014.2 |
| 20260505092446 | 51 | 121 | 0.9 | 2.6 | 0.00 | 0.29 | 0.04 | 91 | 1014.2 |
| 20260505092346 | 51 | 133 | 0.9 | 2.6 | 0.00 | 0.29 | 0.04 | 91 | 1014.2 |
| 20260505092245 | 51 | 139 | 0.9 | 2.6 | 0.00 | 0.29 | 0.04 | 91 | 1014.3 |
| 20260505092145 | 51 | 133 | 0.9 | 2.6 | 0.00 | 0.29 | 0.04 | 91 | 1014.3 |
| 20260505092037 | 51 | 136 | 0.9 | 2.6 | 0.00 | 0.29 | 0.04 | 91 | 1014.2 |
| 20260505091937 | 51 | 135 | 0.9 | 2.6 | 0.00 | 0.29 | 0.04 | 91 | 1014.2 |
| 20260505091838 | 51 | 139 | 0.9 | 2.6 | 0.00 | 0.29 | 0.04 | 91 | 1014.2 |
| 20260505091737 | 51 | 146 | 0.9 | 2.6 | 0.00 | 0.29 | 0.04 | 91 | 1014.3 |
| 20260505091639 | 51 | 214 | 0.9 | 2.6 | 0.00 | 0.29 | 0.04 | 91 | 1014.3 |
| 20260505091537 | 51 | 205 | 0.9 | 3.5 | 0.00 | 0.29 | 0.04 | 91 | 1014.2 |
| 20260505091435 | 51 | 213 | 0.9 | 3.5 | 0.00 | 0.29 | 0.04 | 91 | 1014.3 |
| 20260505091354 | 51 | 154 | 0.9 | 3.5 | 0.00 | 0.29 | 0.04 | 91 | 1014.4 |
| 20260505091334 | 51 | 167 | 0.9 | 3.5 | 0.00 | 0.29 | 0.04 | 91 | 1014.3 |
| 20260505091247 | 51 | 148 | 0.9 | 3.5 | 0.00 | 0.29 | 0.04 | 91 | 1014.4 |
| 20260505091237 | 51 | 154 | 0.9 | 3.5 | 0.00 | 0.29 | 0.04 | 91 | 1014.4 |
| 20260505091029 | 51 | 113 | 0.9 | 3.5 | 0.00 | 0.29 | 0.04 | 91 | 1014.4 |
| 20260505090929 | 51 | 125 | 1.7 | 3.5 | 0.00 | 0.29 | 0.04 | 91 | 1014.4 |
| 20260505090829 | 51 | 136 | 1.7 | 3.5 | 0.00 | 0.29 | 0.04 | 91 | 1014.4 |
| 20260505090727 | 51 | 131 | 0.9 | 3.5 | 0.00 | 0.29 | 0.04 | 91 | 1014.4 |
| 20260505090627 | 51 | 136 | 0.9 | 3.5 | 0.00 | 0.29 | 0.04 | 91 | 1014.4 |
| 20260505090524 | 51 | 131 | 0.9 | 2.6 | 0.00 | 0.29 | 0.04 | 91 | 1014.4 |
| 20260505090423 | 51 | 143 | 0.9 | 2.6 | 0.00 | 0.29 | 0.04 | 91 | 1014.4 |
| 20260505090326 | 51 | 148 | 0.9 | 2.6 | 0.00 | 0.29 | 0.04 | 91 | 1014.4 |
| 20260505090221 | 51 | 148 | 0.9 | 2.6 | 0.00 | 0.29 | 0.04 | 91 | 1014.4 |
| 20260505090120 | 51 | 132 | 0.9 | 2.6 | 0.00 | 0.29 | 0.04 | 91 | 1014.4 |
| 20260505090016 | 51 | 146 | 0.9 | 2.6 | 0.00 | 0.29 | 0.04 | 91 | 1014.4 |
| 20260505085914 | 51 | 136 | 0.9 | 2.6 | 0.00 | 0.29 | 0.04 | 91 | 1014.4 |
| 20260505085813 | 51 | 142 | 0.9 | 2.6 | 0.00 | 0.29 | 0.04 | 91 | 1014.4 |
| 20260505085714 | 51 | 143 | 0.9 | 2.6 | 0.00 | 0.29 | 0.04 | 91 | 1014.4 |
| 20260505085615 | 51 | 142 | 0.9 | 2.6 | 0.00 | 0.29 | 0.04 | 91 | 1014.4 |
| 20260505085511 | 51 | 143 | 0.9 | 2.6 | 0.00 | 0.29 | 0.04 | 91 | 1014.4 |
| 20260505085411 | 51 | 122 | 0.9 | 2.6 | 0.01 | 0.29 | 0.04 | 91 | 1014.4 |
| 20260505085310 | 52 | 120 | 0.9 | 3.5 | 0.01 | 0.29 | 0.04 | 91 | 1014.4 |
| 20260505085210 | 52 | 197 | 0.9 | 4.3 | 0.01 | 0.29 | 0.04 | 91 | 1014.5 |
| 20260505085109 | 52 | 155 | 0.9 | 4.3 | 0.01 | 0.29 | 0.04 | 91 | 1014.5 |
| 20260505085003 | 52 | 143 | 1.7 | 4.3 | 0.01 | 0.29 | 0.04 | 91 | 1014.6 |
| 20260505084903 | 52 | 129 | 1.7 | 4.3 | 0.01 | 0.29 | 0.04 | 91 | 1014.5 |
| 20260505084804 | 52 | 128 | 1.7 | 4.3 | 0.01 | 0.29 | 0.04 | 91 | 1014.5 |
| 20260505084704 | 52 | 144 | 1.7 | 4.3 | 0.01 | 0.29 | 0.04 | 91 | 1014.5 |
| 20260505084602 | 52 | 131 | 1.7 | 4.3 | 0.01 | 0.29 | 0.04 | 91 | 1014.5 |
| 20260505084455 | 52 | 153 | 1.7 | 4.3 | 0.01 | 0.29 | 0.04 | 91 | 1014.6 |
| 20260505084355 | 52 | 128 | 1.7 | 4.3 | 0.02 | 0.29 | 0.04 | 91 | 1014.5 |
| 20260505084255 | 52 | 145 | 1.7 | 4.3 | 0.02 | 0.29 | 0.04 | 91 | 1014.6 |
| 20260505084156 | 52 | 166 | 1.7 | 4.3 | 0.02 | 0.29 | 0.04 | 91 | 1014.6 |
| 20260505084057 | 52 | 151 | 1.7 | 4.3 | 0.02 | 0.29 | 0.04 | 91 | 1014.6 |
| 20260505083949 | 52 | 136 | 0.9 | 4.3 | 0.02 | 0.29 | 0.04 | 91 | 1014.6 |
| 20260505083850 | 52 | 129 | 0.9 | 3.5 | 0.02 | 0.29 | 0.04 | 91 | 1014.6 |
| 20260505083750 | 52 | 139 | 0.9 | 3.5 | 0.02 | 0.29 | 0.04 | 91 | 1014.6 |
| 20260505083649 | 52 | 134 | 0.9 | 3.5 | 0.02 | 0.29 | 0.04 | 91 | 1014.6 |
| 20260505083550 | 52 | 150 | 0.9 | 3.5 | 0.02 | 0.29 | 0.04 | 91 | 1014.6 |
| 20260505083443 | 52 | 148 | 0.9 | 3.5 | 0.02 | 0.29 | 0.04 | 91 | 1014.6 |
| 20260505083343 | 52 | 139 | 0.9 | 3.5 | 0.02 | 0.29 | 0.04 | 91 | 1014.6 |
| 20260505083243 | 52 | 141 | 0.9 | 3.5 | 0.02 | 0.29 | 0.04 | 91 | 1014.6 |
| 20260505083144 | 52 | 145 | 0.9 | 3.5 | 0.02 | 0.29 | 0.04 | 91 | 1014.6 |
| 20260505083045 | 52 | 146 | 0.9 | 3.5 | 0.02 | 0.29 | 0.04 | 91 | 1014.5 |
| 20260505082940 | 52 | 145 | 0.9 | 3.5 | 0.02 | 0.29 | 0.04 | 91 | 1014.5 |
| 20260505082838 | 52 | 141 | 0.9 | 3.5 | 0.02 | 0.29 | 0.04 | 91 | 1014.5 |
| 20260505082737 | 52 | 195 | 0.9 | 3.5 | 0.02 | 0.29 | 0.04 | 91 | 1014.6 |
| 20260505082638 | 52 | 119 | 0.9 | 3.5 | 0.02 | 0.29 | 0.04 | 91 | 1014.6 |
| 20260505082538 | 52 | 114 | 0.9 | 3.5 | 0.02 | 0.29 | 0.04 | 91 | 1014.6 |
| 20260505082434 | 52 | 215 | 0.9 | 3.5 | 0.02 | 0.29 | 0.04 | 91 | 1014.6 |
| 20260505082333 | 52 | 239 | 0.9 | 3.5 | 0.02 | 0.29 | 0.04 | 91 | 1014.6 |
| 20260505082233 | 52 | 207 | 0.9 | 3.5 | 0.02 | 0.29 | 0.04 | 91 | 1014.6 |
| 20260505082133 | 52 | 125 | 0.9 | 3.5 | 0.02 | 0.29 | 0.04 | 91 | 1014.6 |
| 20260505082035 | 52 | 143 | 0.9 | 3.5 | 0.03 | 0.29 | 0.04 | 91 | 1014.5 |
| 20260505081930 | 52 | 120 | 0.9 | 3.5 | 0.03 | 0.29 | 0.04 | 91 | 1014.6 |
| 20260505081829 | 52 | 201 | 0.9 | 3.5 | 0.03 | 0.29 | 0.04 | 91 | 1014.6 |
| 20260505081732 | 52 | 132 | 0.9 | 3.5 | 0.03 | 0.29 | 0.04 | 91 | 1014.6 |
| 20260505081627 | 52 | 137 | 0.9 | 3.5 | 0.03 | 0.29 | 0.04 | 91 | 1014.6 |
| 20260505081529 | 52 | 144 | 0.9 | 3.5 | 0.03 | 0.29 | 0.04 | 91 | 1014.6 |
| 20260505081423 | 52 | 144 | 0.9 | 3.5 | 0.03 | 0.29 | 0.04 | 91 | 1014.6 |
| 20260505081325 | 52 | 125 | 0.9 | 2.6 | 0.03 | 0.29 | 0.04 | 91 | 1014.6 |
| 20260505081224 | 52 | 141 | 0.9 | 3.5 | 0.03 | 0.29 | 0.04 | 91 | 1014.6 |
| 20260505081121 | 52 | 248 | 0.9 | 3.5 | 0.03 | 0.29 | 0.04 | 91 | 1014.5 |
| 20260505081021 | 52 | 151 | 0.9 | 3.5 | 0.03 | 0.29 | 0.04 | 91 | 1014.6 |
| 20260505080919 | 52 | 162 | 0.9 | 3.5 | 0.03 | 0.29 | 0.04 | 91 | 1014.6 |
| 20260505080818 | 52 | 162 | 0.9 | 3.5 | 0.03 | 0.29 | 0.04 | 91 | 1014.6 |
| 20260505080736 | 52 | 198 | 0.9 | 3.5 | 0.03 | 0.29 | 0.04 | 91 | 1014.6 |
| 20260505080715 | 52 | 129 | 0.9 | 3.5 | 0.03 | 0.29 | 0.04 | 91 | 1014.6 |
| 20260505080629 | 52 | 205 | 0.9 | 3.5 | 0.03 | 0.29 | 0.04 | 91 | 1014.6 |
| 20260505080619 | 52 | 198 | 0.9 | 3.5 | 0.03 | 0.29 | 0.04 | 91 | 1014.6 |
| 20260505080308 | 52 | 205 | 0.9 | 3.5 | 0.04 | 0.29 | 0.04 | 91 | 1014.6 |
| 20260505080208 | 52 | 219 | 0.9 | 2.6 | 0.04 | 0.29 | 0.04 | 91 | 1014.6 |
| 20260505080107 | 52 | 186 | 0.9 | 3.5 | 0.04 | 0.29 | 0.04 | 91 | 1014.6 |
| 20260505080010 | 52 | 198 | 0.9 | 5.2 | 0.04 | 0.29 | 0.04 | 91 | 1014.6 |
| 20260505075906 | 52 | 192 | 0.9 | 5.2 | 0.04 | 0.29 | 0.04 | 91 | 1014.6 |
| 20260505075705 | 52 | 222 | 1.7 | 5.2 | 0.05 | 0.29 | 0.04 | 91 | 1014.6 |
| 20260505075603 | 52 | 226 | 1.7 | 5.2 | 0.05 | 0.29 | 0.04 | 91 | 1014.7 |
| 20260505075507 | 52 | 127 | 1.7 | 5.2 | 0.04 | 0.28 | 0.04 | 91 | 1014.6 |
| 20260505075355 | 52 | 195 | 1.7 | 5.2 | 0.04 | 0.28 | 0.03 | 91 | 1014.7 |
| 20260505075256 | 52 | 174 | 1.7 | 5.2 | 0.04 | 0.28 | 0.03 | 91 | 1014.7 |
| 20260505075218 | 52 | 163 | 1.7 | 4.3 | 0.05 | 0.28 | 0.03 | 91 | 1014.7 |
| 20260505075156 | 52 | 150 | 1.7 | 5.2 | 0.04 | 0.28 | 0.03 | 91 | 1014.7 |
| 20260505075112 | 52 | 158 | 1.7 | 5.2 | 0.05 | 0.28 | 0.03 | 91 | 1014.7 |
| 20260505075102 | 52 | 163 | 1.7 | 4.3 | 0.05 | 0.28 | 0.03 | 91 | 1014.7 |
| 20260505074852 | 52 | 231 | 1.7 | 4.3 | 0.05 | 0.28 | 0.03 | 91 | 1014.6 |
| 20260505074751 | 52 | 212 | 1.7 | 4.3 | 0.05 | 0.28 | 0.03 | 91 | 1014.7 |
| 20260505074652 | 52 | 222 | 1.7 | 4.3 | 0.05 | 0.28 | 0.03 | 91 | 1014.7 |
| 20260505074552 | 52 | 210 | 1.7 | 4.3 | 0.05 | 0.28 | 0.03 | 91 | 1014.8 |
| 20260505074450 | 52 | 239 | 0.9 | 4.3 | 0.05 | 0.28 | 0.03 | 91 | 1014.9 |
| 20260505074345 | 52 | 146 | 0.9 | 4.3 | 0.04 | 0.27 | 0.03 | 91 | 1014.9 |
| 20260505074243 | 52 | 210 | 0.9 | 4.3 | 0.04 | 0.27 | 0.02 | 91 | 1014.9 |
| 20260505074144 | 52 | 149 | 0.9 | 2.6 | 0.04 | 0.27 | 0.02 | 91 | 1014.9 |
| 20260505074043 | 52 | 150 | 0.9 | 2.6 | 0.04 | 0.27 | 0.02 | 91 | 1014.9 |
| 20260505073946 | 52 | 155 | 0.9 | 2.6 | 0.04 | 0.27 | 0.02 | 91 | 1014.9 |
| 20260505073844 | 52 | 155 | 0.9 | 2.6 | 0.04 | 0.27 | 0.02 | 91 | 1014.9 |
| 20260505073742 | 52 | 169 | 0.0 | 2.6 | 0.05 | 0.27 | 0.02 | 91 | 1015.0 |
| 20260505073639 | 52 | 150 | 0.0 | 1.7 | 0.05 | 0.27 | 0.02 | 91 | 1015.0 |
| 20260505073539 | 52 | 148 | 0.0 | 1.7 | 0.05 | 0.27 | 0.02 | 91 | 1015.0 |
| 20260505073438 | 52 | 147 | 0.0 | 1.7 | 0.05 | 0.27 | 0.02 | 91 | 1015.0 |
| 20260505073336 | 52 | 138 | 0.0 | 1.7 | 0.05 | 0.27 | 0.02 | 91 | 1015.0 |
| 20260505073236 | 52 | 139 | 0.0 | 1.7 | 0.05 | 0.27 | 0.02 | 91 | 1015.0 |
| 20260505073135 | 52 | 127 | 0.0 | 1.7 | 0.05 | 0.27 | 0.02 | 91 | 1015.0 |
| 20260505073033 | 52 | 198 | 0.0 | 0.9 | 0.05 | 0.27 | 0.02 | 91 | 1014.9 |
| 20260505072935 | 52 | 197 | 0.0 | 0.9 | 0.05 | 0.27 | 0.02 | 91 | 1015.0 |
| 20260505072827 | 52 | 197 | 0.0 | 1.7 | 0.05 | 0.27 | 0.02 | 91 | 1015.0 |
| 20260505072726 | 52 | 197 | 0.0 | 1.7 | 0.05 | 0.27 | 0.02 | 91 | 1015.0 |
| 20260505072626 | 52 | 197 | 0.0 | 1.7 | 0.05 | 0.27 | 0.02 | 91 | 1015.0 |
| 20260505072525 | 52 | 198 | 0.0 | 1.7 | 0.05 | 0.27 | 0.02 | 91 | 1015.0 |
| 20260505072427 | 52 | 198 | 0.0 | 1.7 | 0.05 | 0.27 | 0.02 | 91 | 1015.0 |
| 20260505072324 | 52 | 198 | 0.0 | 1.7 | 0.06 | 0.27 | 0.02 | 91 | 1015.0 |
| 20260505072223 | 52 | 197 | 0.0 | 1.7 | 0.06 | 0.27 | 0.02 | 91 | 1015.0 |
| 20260505072122 | 52 | 197 | 0.0 | 1.7 | 0.06 | 0.27 | 0.02 | 91 | 1015.0 |
| 20260505072021 | 52 | 198 | 0.0 | 1.7 | 0.05 | 0.26 | 0.02 | 91 | 1015.0 |
| 20260505071920 | 52 | 217 | 0.0 | 1.7 | 0.05 | 0.26 | 0.01 | 91 | 1015.0 |
| 20260505071816 | 52 | 148 | 0.0 | 1.7 | 0.05 | 0.26 | 0.01 | 91 | 1014.9 |
| 20260505071714 | 52 | 148 | 0.0 | 1.7 | 0.05 | 0.26 | 0.01 | 91 | 1015.0 |
| 20260505071613 | 52 | 148 | 0.0 | 1.7 | 0.05 | 0.26 | 0.01 | 91 | 1015.0 |
| 20260505071514 | 52 | 150 | 0.0 | 1.7 | 0.05 | 0.26 | 0.01 | 91 | 1015.0 |
| 20260505071417 | 52 | 151 | 0.0 | 1.7 | 0.05 | 0.26 | 0.01 | 91 | 1014.9 |
| 20260505071307 | 52 | 150 | 0.0 | 1.7 | 0.05 | 0.26 | 0.01 | 91 | 1014.9 |
| 20260505071208 | 52 | 150 | 0.0 | 1.7 | 0.05 | 0.26 | 0.01 | 91 | 1015.0 |
| 20260505071107 | 52 | 150 | 0.0 | 1.7 | 0.05 | 0.26 | 0.01 | 91 | 1015.0 |
| 20260505071007 | 52 | 151 | 0.0 | 1.7 | 0.06 | 0.26 | 0.01 | 91 | 1015.0 |
| 20260505070909 | 52 | 150 | 0.0 | 1.7 | 0.06 | 0.26 | 0.01 | 91 | 1015.0 |
| 20260505070805 | 52 | 151 | 0.0 | 1.7 | 0.06 | 0.26 | 0.01 | 91 | 1014.9 |
| 20260505070706 | 52 | 151 | 0.0 | 1.7 | 0.06 | 0.26 | 0.01 | 91 | 1014.9 |
| 20260505070605 | 52 | 150 | 0.0 | 1.7 | 0.06 | 0.26 | 0.01 | 91 | 1014.9 |
| 20260505070503 | 52 | 151 | 0.0 | 1.7 | 0.06 | 0.26 | 0.01 | 91 | 1014.8 |
| 20260505070405 | 52 | 150 | 0.0 | 1.7 | 0.05 | 0.25 | 0.00 | 91 | 1014.8 |
| 20260505070258 | 52 | 155 | 0.0 | 1.7 | 0.05 | 0.25 | 0.00 | 91 | 1014.7 |
| 20260505070155 | 52 | 226 | 0.0 | 1.7 | 0.06 | 0.25 | 0.00 | 91 | 1014.7 |
| 20260505070056 | 52 | 226 | 0.0 | 1.7 | 0.06 | 0.25 | 0.00 | 91 | 1014.7 |
| 20260505065956 | 52 | 226 | 0.0 | 1.7 | 0.06 | 0.25 | 0.25 | 91 | 1014.6 |
| 20260505065857 | 52 | 226 | 0.0 | 1.7 | 0.06 | 0.25 | 0.25 | 91 | 1014.5 |
| 20260505065755 | 52 | 226 | 0.9 | 1.7 | 0.06 | 0.25 | 0.25 | 91 | 1014.5 |
| 20260505065653 | 52 | 226 | 0.9 | 1.7 | 0.06 | 0.24 | 0.25 | 91 | 1014.5 |
| 20260505065553 | 52 | 226 | 0.9 | 1.7 | 0.06 | 0.24 | 0.24 | 91 | 1014.5 |
| 20260505065452 | 52 | 210 | 0.0 | 1.7 | 0.06 | 0.24 | 0.24 | 91 | 1014.5 |
| 20260505065351 | 52 | 210 | 0.0 | 1.7 | 0.06 | 0.24 | 0.24 | 91 | 1014.5 |
| 20260505065243 | 52 | 210 | 0.0 | 1.7 | 0.06 | 0.24 | 0.24 | 91 | 1014.5 |
| 20260505065144 | 52 | 210 | 0.0 | 1.7 | 0.07 | 0.24 | 0.24 | 91 | 1014.5 |
| 20260505065043 | 52 | 210 | 0.0 | 1.7 | 0.06 | 0.23 | 0.24 | 91 | 1014.5 |
| 20260505064944 | 52 | 207 | 0.0 | 0.9 | 0.06 | 0.23 | 0.23 | 91 | 1014.6 |
| 20260505064845 | 52 | 207 | 0.0 | 0.9 | 0.06 | 0.23 | 0.23 | 91 | 1014.7 |
| 20260505064740 | 52 | 207 | 0.0 | 0.9 | 0.06 | 0.23 | 0.23 | 91 | 1014.6 |
| 20260505064640 | 52 | 207 | 0.0 | 0.9 | 0.06 | 0.23 | 0.23 | 91 | 1014.7 |
| 20260505064539 | 52 | 207 | 0.0 | 0.9 | 0.06 | 0.23 | 0.23 | 91 | 1014.7 |
| 20260505064440 | 52 | 207 | 0.0 | 0.9 | 0.06 | 0.23 | 0.23 | 91 | 1014.8 |
| 20260505064339 | 52 | 207 | 0.0 | 0.9 | 0.07 | 0.23 | 0.23 | 91 | 1014.8 |
| 20260505064238 | 52 | 207 | 0.0 | 0.9 | 0.07 | 0.23 | 0.23 | 91 | 1014.9 |
| 20260505064136 | 52 | 207 | 0.0 | 0.9 | 0.07 | 0.23 | 0.23 | 91 | 1014.8 |
| 20260505064035 | 52 | 207 | 0.0 | 0.9 | 0.07 | 0.23 | 0.23 | 91 | 1014.9 |
| 20260505063934 | 52 | 207 | 0.0 | 0.9 | 0.07 | 0.23 | 0.23 | 91 | 1014.8 |
| 20260505063834 | 52 | 207 | 0.0 | 0.9 | 0.07 | 0.23 | 0.23 | 91 | 1014.8 |
| 20260505063731 | 52 | 207 | 0.0 | 0.9 | 0.06 | 0.22 | 0.22 | 91 | 1014.8 |
| 20260505063630 | 52 | 207 | 0.0 | 0.9 | 0.06 | 0.22 | 0.22 | 91 | 1014.9 |
| 20260505063530 | 52 | 207 | 0.0 | 0.9 | 0.06 | 0.22 | 0.22 | 91 | 1014.8 |
| 20260505063428 | 52 | 207 | 0.0 | 0.9 | 0.06 | 0.22 | 0.22 | 91 | 1014.9 |
| 20260505063328 | 52 | 207 | 0.0 | 0.9 | 0.06 | 0.22 | 0.22 | 91 | 1014.9 |
| 20260505063221 | 52 | 207 | 0.0 | 0.0 | 0.06 | 0.22 | 0.22 | 91 | 1014.9 |
| 20260505063120 | 52 | 207 | 0.0 | 0.0 | 0.06 | 0.22 | 0.22 | 91 | 1015.0 |
| 20260505063020 | 52 | 207 | 0.0 | 0.0 | 0.06 | 0.22 | 0.22 | 91 | 1015.0 |
| 20260505062919 | 52 | 207 | 0.0 | 0.0 | 0.06 | 0.22 | 0.22 | 91 | 1015.0 |
| 20260505062821 | 53 | 207 | 0.0 | 0.0 | 0.06 | 0.22 | 0.22 | 91 | 1015.0 |
| 20260505062720 | 53 | 207 | 0.0 | 0.0 | 0.06 | 0.22 | 0.22 | 91 | 1014.9 |
| 20260505062618 | 53 | 207 | 0.0 | 0.0 | 0.06 | 0.22 | 0.22 | 91 | 1014.9 |
| 20260505062517 | 53 | 207 | 0.0 | 0.0 | 0.06 | 0.22 | 0.22 | 91 | 1014.9 |
| 20260505062415 | 53 | 207 | 0.0 | 0.9 | 0.06 | 0.22 | 0.22 | 91 | 1014.8 |
| 20260505062318 | 53 | 207 | 0.0 | 0.9 | 0.05 | 0.21 | 0.22 | 91 | 1014.8 |
| 20260505062213 | 53 | 207 | 0.0 | 1.7 | 0.05 | 0.21 | 0.21 | 91 | 1014.8 |
| 20260505062112 | 53 | 207 | 0.0 | 1.7 | 0.05 | 0.21 | 0.21 | 91 | 1014.8 |
| 20260505062012 | 53 | 207 | 0.0 | 1.7 | 0.05 | 0.21 | 0.21 | 91 | 1014.7 |
| 20260505061909 | 53 | 207 | 0.0 | 1.7 | 0.05 | 0.21 | 0.21 | 91 | 1014.7 |
| 20260505061809 | 53 | 207 | 0.9 | 1.7 | 0.05 | 0.21 | 0.21 | 91 | 1014.7 |
| 20260505061706 | 53 | 207 | 0.9 | 1.7 | 0.05 | 0.21 | 0.21 | 91 | 1014.5 |
| 20260505061606 | 53 | 207 | 0.9 | 1.7 | 0.05 | 0.21 | 0.21 | 91 | 1014.5 |
| 20260505061519 | 53 | 207 | 0.9 | 1.7 | 0.05 | 0.21 | 0.21 | 91 | 1014.3 |
| 20260505061505 | 53 | 207 | 0.9 | 1.7 | 0.05 | 0.21 | 0.21 | 91 | 1014.4 |
| 20260505061423 | 53 | 207 | 0.9 | 1.7 | 0.05 | 0.21 | 0.21 | 91 | 1014.3 |
| 20260505061407 | 53 | 207 | 0.9 | 1.7 | 0.05 | 0.21 | 0.21 | 91 | 1014.3 |
| 20260505061201 | 53 | 198 | 0.9 | 1.7 | 0.05 | 0.21 | 0.21 | 91 | 1014.2 |
| 20260505061100 | 53 | 212 | 0.0 | 1.7 | 0.04 | 0.20 | 0.21 | 91 | 1014.2 |
| 20260505060958 | 53 | 205 | 0.0 | 1.7 | 0.04 | 0.20 | 0.20 | 91 | 1014.2 |
| 20260505060857 | 53 | 207 | 0.0 | 1.7 | 0.04 | 0.20 | 0.20 | 91 | 1014.3 |
| 20260505060757 | 53 | 215 | 0.0 | 0.9 | 0.04 | 0.20 | 0.20 | 91 | 1014.3 |
| 20260505060650 | 53 | 216 | 0.0 | 0.9 | 0.04 | 0.20 | 0.20 | 91 | 1014.4 |
| 20260505060550 | 53 | 215 | 0.0 | 0.9 | 0.04 | 0.20 | 0.20 | 91 | 1014.4 |
| 20260505060449 | 53 | 215 | 0.0 | 0.9 | 0.04 | 0.20 | 0.20 | 91 | 1014.4 |
| 20260505060349 | 53 | 215 | 0.0 | 0.9 | 0.04 | 0.20 | 0.20 | 91 | 1014.4 |
| 20260505060251 | 53 | 207 | 0.0 | 0.9 | 0.04 | 0.20 | 0.20 | 91 | 1014.5 |
| 20260505060149 | 53 | 207 | 0.0 | 0.9 | 0.03 | 0.19 | 0.20 | 91 | 1014.5 |
| 20260505060047 | 53 | 207 | 0.0 | 0.9 | 0.03 | 0.19 | 0.19 | 91 | 1014.5 |
| 20260505055946 | 53 | 207 | 0.0 | 0.9 | 0.03 | 0.19 | 0.19 | 91 | 1014.5 |
| 20260505055846 | 53 | 207 | 0.0 | 0.9 | 0.03 | 0.19 | 0.19 | 91 | 1014.5 |
| 20260505055745 | 53 | 207 | 0.0 | 0.9 | 0.03 | 0.19 | 0.19 | 91 | 1014.6 |
| 20260505055638 | 53 | 207 | 0.0 | 0.9 | 0.02 | 0.18 | 0.19 | 91 | 1014.6 |
| 20260505055537 | 53 | 207 | 0.0 | 0.9 | 0.02 | 0.18 | 0.18 | 91 | 1014.6 |
| 20260505055438 | 53 | 207 | 0.0 | 0.9 | 0.02 | 0.18 | 0.18 | 91 | 1014.5 |
| 20260505055338 | 53 | 207 | 0.0 | 0.9 | 0.02 | 0.18 | 0.18 | 91 | 1014.6 |
| 20260505055238 | 53 | 207 | 0.0 | 0.9 | 0.01 | 0.17 | 0.18 | 91 | 1014.6 |
| 20260505055132 | 53 | 97 | 0.0 | 0.9 | 0.02 | 0.17 | 0.17 | 91 | 1014.6 |
| 20260505055032 | 53 | 97 | 0.0 | 0.9 | 0.02 | 0.17 | 0.17 | 91 | 1014.6 |
| 20260505054931 | 53 | 98 | 0.0 | 1.7 | 0.02 | 0.17 | 0.17 | 91 | 1014.6 |
| 20260505054832 | 53 | 97 | 0.9 | 1.7 | 0.02 | 0.17 | 0.17 | 91 | 1014.6 |
| 20260505054733 | 53 | 98 | 0.9 | 1.7 | 0.02 | 0.17 | 0.17 | 91 | 1014.6 |
| 20260505054627 | 53 | 98 | 0.9 | 1.7 | 0.02 | 0.17 | 0.17 | 91 | 1014.6 |
| 20260505054528 | 53 | 97 | 0.9 | 1.7 | 0.02 | 0.17 | 0.17 | 91 | 1014.5 |
| 20260505054427 | 53 | 98 | 0.9 | 1.7 | 0.02 | 0.17 | 0.17 | 91 | 1014.6 |
| 20260505054327 | 53 | 97 | 0.9 | 1.7 | 0.01 | 0.16 | 0.16 | 91 | 1014.6 |
| 20260505054227 | 53 | 115 | 0.9 | 1.7 | 0.01 | 0.16 | 0.16 | 91 | 1014.6 |
| 20260505054122 | 53 | 102 | 0.9 | 1.7 | 0.01 | 0.16 | 0.16 | 91 | 1014.6 |
| 20260505054020 | 53 | 113 | 0.9 | 1.7 | 0.02 | 0.16 | 0.16 | 91 | 1014.6 |
| 20260505053940 | 53 | 115 | 0.0 | 1.7 | 0.02 | 0.16 | 0.16 | 91 | 1014.6 |
| 20260505053919 | 53 | 113 | 0.9 | 1.7 | 0.02 | 0.16 | 0.16 | 91 | 1014.6 |
| 20260505053836 | 53 | 113 | 0.9 | 1.7 | 0.02 | 0.16 | 0.16 | 91 | 1014.6 |
| 20260505053825 | 53 | 115 | 0.0 | 1.7 | 0.02 | 0.16 | 0.16 | 91 | 1014.6 |
| 20260505053614 | 53 | 122 | 0.0 | 1.7 | 0.02 | 0.16 | 0.16 | 91 | 1014.5 |
| 20260505053514 | 53 | 110 | 0.0 | 1.7 | 0.02 | 0.16 | 0.16 | 91 | 1014.5 |
| 20260505053413 | 53 | 96 | 0.0 | 1.7 | 0.02 | 0.16 | 0.16 | 91 | 1014.4 |
| 20260505053314 | 53 | 95 | 0.0 | 1.7 | 0.02 | 0.16 | 0.16 | 91 | 1014.4 |
| 20260505053216 | 53 | 94 | 0.0 | 1.7 | 0.02 | 0.16 | 0.16 | 91 | 1014.4 |
| 20260505053113 | 53 | 95 | 0.0 | 1.7 | 0.02 | 0.16 | 0.16 | 91 | 1014.4 |
| 20260505053012 | 53 | 94 | 0.0 | 1.7 | 0.02 | 0.16 | 0.16 | 91 | 1014.4 |
| 20260505052911 | 53 | 95 | 0.0 | 1.7 | 0.02 | 0.16 | 0.16 | 91 | 1014.4 |
| 20260505052810 | 53 | 95 | 0.0 | 1.7 | 0.02 | 0.16 | 0.16 | 91 | 1014.4 |
| 20260505052710 | 53 | 94 | 0.0 | 1.7 | 0.03 | 0.16 | 0.16 | 91 | 1014.4 |
| 20260505052602 | 53 | 95 | 0.0 | 1.7 | 0.03 | 0.16 | 0.16 | 91 | 1014.4 |
| 20260505052502 | 53 | 97 | 0.0 | 1.7 | 0.03 | 0.16 | 0.16 | 91 | 1014.4 |
| 20260505052401 | 53 | 144 | 0.0 | 0.9 | 0.03 | 0.16 | 0.16 | 91 | 1014.3 |
| 20260505052301 | 53 | 143 | 0.0 | 0.9 | 0.03 | 0.16 | 0.16 | 91 | 1014.4 |
| 20260505052203 | 53 | 144 | 0.0 | 0.9 | 0.03 | 0.16 | 0.16 | 91 | 1014.3 |
| 20260505052055 | 53 | 144 | 0.0 | 0.9 | 0.03 | 0.16 | 0.16 | 91 | 1014.4 |
| 20260505051956 | 53 | 143 | 0.0 | 0.9 | 0.03 | 0.16 | 0.16 | 91 | 1014.4 |
| 20260505051856 | 53 | 144 | 0.0 | 0.9 | 0.03 | 0.16 | 0.16 | 91 | 1014.5 |
| 20260505051756 | 53 | 143 | 0.0 | 0.9 | 0.03 | 0.16 | 0.16 | 91 | 1014.5 |
| 20260505051709 | 53 | 143 | 0.0 | 0.9 | 0.03 | 0.16 | 0.16 | 91 | 1014.5 |
| 20260505051551 | 53 | 143 | 0.0 | 0.9 | 0.04 | 0.16 | 0.16 | 91 | 1014.6 |
| 20260505051449 | 53 | 144 | 0.0 | 0.9 | 0.04 | 0.16 | 0.16 | 91 | 1014.6 |
| 20260505051350 | 53 | 143 | 0.0 | 0.9 | 0.04 | 0.16 | 0.16 | 91 | 1014.6 |
| 20260505051250 | 53 | 144 | 0.0 | 0.9 | 0.04 | 0.16 | 0.16 | 91 | 1014.6 |
| 20260505051152 | 53 | 143 | 0.0 | 0.9 | 0.04 | 0.16 | 0.16 | 91 | 1014.7 |
| 20260505051047 | 53 | 144 | 0.0 | 0.0 | 0.04 | 0.16 | 0.16 | 91 | 1014.7 |
| 20260505050947 | 53 | 144 | 0.0 | 0.0 | 0.04 | 0.16 | 0.16 | 91 | 1014.6 |
| 20260505050847 | 53 | 143 | 0.0 | 0.0 | 0.04 | 0.16 | 0.16 | 91 | 1014.6 |
| 20260505050747 | 53 | 144 | 0.0 | 0.0 | 0.04 | 0.16 | 0.16 | 91 | 1014.6 |
| 20260505050652 | 53 | 143 | 0.0 | 0.0 | 0.04 | 0.16 | 0.16 | 91 | 1014.7 |
| 20260505050625 | 53 | 143 | 0.0 | 0.0 | 0.05 | 0.16 | 0.16 | 91 | 1014.7 |
| 20260505050538 | 53 | 144 | 0.0 | 0.0 | 0.04 | 0.16 | 0.16 | 91 | 1014.7 |
| 20260505050510 | 53 | 144 | 0.0 | 0.0 | 0.04 | 0.16 | 0.16 | 91 | 1014.7 |
| 20260505050338 | 53 | 143 | 0.0 | 0.0 | 0.05 | 0.16 | 0.16 | 91 | 1014.7 |
| 20260505050255 | 53 | 144 | 0.0 | 0.0 | 0.05 | 0.16 | 0.16 | 91 | 1014.7 |
| 20260505050245 | 53 | 143 | 0.0 | 0.0 | 0.05 | 0.16 | 0.16 | 91 | 1014.7 |
| 20260505041744 | 54 | 170 | 0.0 | 0.9 | 0.09 | 0.13 | 0.13 | 92 | 1014.7 |
| 20260505041644 | 54 | 170 | 0.0 | 0.9 | 0.09 | 0.13 | 0.13 | 92 | 1014.7 |
| 20260505041547 | 54 | 170 | 0.0 | 0.9 | 0.08 | 0.12 | 0.12 | 92 | 1014.7 |
| 20260505041439 | 54 | 115 | 0.0 | 0.9 | 0.08 | 0.12 | 0.12 | 92 | 1014.7 |
| 20260505041340 | 54 | 116 | 0.0 | 0.9 | 0.08 | 0.12 | 0.12 | 92 | 1014.7 |
| 20260505041239 | 54 | 115 | 0.0 | 0.9 | 0.08 | 0.12 | 0.12 | 92 | 1014.7 |
| 20260505041139 | 54 | 116 | 0.0 | 0.9 | 0.08 | 0.12 | 0.12 | 91 | 1014.7 |
| 20260505041039 | 55 | 115 | 0.0 | 0.9 | 0.08 | 0.12 | 0.12 | 92 | 1014.8 |
| 20260505040932 | 55 | 116 | 0.0 | 0.9 | 0.08 | 0.12 | 0.12 | 92 | 1014.7 |
| 20260505040831 | 55 | 115 | 0.0 | 0.9 | 0.08 | 0.12 | 0.12 | 92 | 1014.7 |
| 20260505040731 | 55 | 116 | 0.0 | 0.9 | 0.08 | 0.12 | 0.12 | 92 | 1014.7 |
| 20260505040632 | 55 | 116 | 0.0 | 0.9 | 0.08 | 0.12 | 0.12 | 91 | 1014.7 |
| 20260505040535 | 55 | 115 | 0.0 | 0.9 | 0.08 | 0.12 | 0.12 | 92 | 1014.7 |
| 20260505040429 | 55 | 108 | 0.0 | 0.0 | 0.07 | 0.11 | 0.12 | 92 | 1014.7 |
| 20260505040330 | 55 | 107 | 0.0 | 0.0 | 0.07 | 0.11 | 0.11 | 92 | 1014.7 |
| 20260505040256 | 55 | 108 | 0.0 | 0.0 | 0.07 | 0.11 | 0.11 | 92 | 1014.8 |
| 20260505040231 | 55 | 108 | 0.0 | 0.0 | 0.07 | 0.11 | 0.11 | 92 | 1014.7 |
| 20260505040142 | 55 | 107 | 0.0 | 0.0 | 0.07 | 0.11 | 0.11 | 92 | 1014.7 |
| 20260505040131 | 55 | 108 | 0.0 | 0.0 | 0.07 | 0.11 | 0.11 | 92 | 1014.8 |
| 20260505035920 | 55 | 107 | 0.0 | 0.0 | 0.07 | 0.11 | 0.11 | 92 | 1014.8 |
| 20260505035820 | 55 | 108 | 0.0 | 0.0 | 0.07 | 0.11 | 0.11 | 92 | 1014.8 |
| 20260505035719 | 55 | 108 | 0.0 | 0.0 | 0.07 | 0.11 | 0.11 | 92 | 1014.8 |
| 20260505035620 | 55 | 108 | 0.0 | 0.0 | 0.07 | 0.11 | 0.11 | 92 | 1014.8 |
| 20260505035520 | 55 | 108 | 0.0 | 0.0 | 0.07 | 0.11 | 0.11 | 92 | 1014.8 |
| 20260505035414 | 55 | 107 | 0.0 | 0.0 | 0.07 | 0.11 | 0.11 | 92 | 1014.8 |
| 20260505035313 | 55 | 108 | 0.0 | 0.0 | 0.07 | 0.11 | 0.11 | 92 | 1014.8 |
| 20260505035214 | 55 | 107 | 0.0 | 0.0 | 0.07 | 0.11 | 0.11 | 92 | 1014.8 |
| 20260505035114 | 55 | 108 | 0.0 | 0.0 | 0.06 | 0.10 | 0.10 | 92 | 1014.8 |
| 20260505035015 | 55 | 108 | 0.0 | 0.0 | 0.06 | 0.10 | 0.10 | 92 | 1014.7 |
| 20260505034912 | 55 | 108 | 0.0 | 0.0 | 0.06 | 0.10 | 0.10 | 92 | 1014.7 |
| 20260505034811 | 55 | 108 | 0.0 | 0.0 | 0.06 | 0.10 | 0.10 | 92 | 1014.7 |
| 20260505034708 | 55 | 107 | 0.0 | 0.0 | 0.06 | 0.10 | 0.10 | 92 | 1014.7 |
| 20260505034607 | 55 | 107 | 0.0 | 0.0 | 0.05 | 0.09 | 0.10 | 92 | 1014.7 |
| 20260505034509 | 55 | 108 | 0.0 | 0.0 | 0.05 | 0.09 | 0.09 | 92 | 1014.7 |
| 20260505034408 | 55 | 108 | 0.0 | 0.0 | 0.05 | 0.09 | 0.09 | 92 | 1014.7 |
| 20260505034307 | 55 | 107 | 0.0 | 0.0 | 0.05 | 0.09 | 0.09 | 92 | 1014.7 |
| 20260505034203 | 55 | 107 | 0.0 | 0.0 | 0.05 | 0.09 | 0.09 | 92 | 1014.6 |
| 20260505034104 | 55 | 108 | 0.0 | 0.0 | 0.05 | 0.09 | 0.09 | 92 | 1014.6 |
| 20260505034003 | 55 | 107 | 0.0 | 0.9 | 0.04 | 0.08 | 0.08 | 92 | 1014.6 |
| 20260505033856 | 55 | 108 | 0.0 | 0.9 | 0.04 | 0.08 | 0.08 | 92 | 1014.5 |
| 20260505033755 | 55 | 108 | 0.0 | 0.9 | 0.04 | 0.08 | 0.08 | 92 | 1014.5 |
| 20260505033656 | 55 | 108 | 0.0 | 0.9 | 0.03 | 0.07 | 0.08 | 92 | 1014.6 |
| 20260505033555 | 55 | 107 | 0.0 | 0.9 | 0.03 | 0.07 | 0.07 | 92 | 1014.5 |
| 20260505033456 | 55 | 107 | 0.0 | 0.9 | 0.03 | 0.07 | 0.07 | 92 | 1014.5 |
| 20260505033350 | 55 | 108 | 0.0 | 0.9 | 0.02 | 0.06 | 0.07 | 92 | 1014.5 |
| 20260505033250 | 55 | 108 | 0.0 | 0.9 | 0.02 | 0.06 | 0.06 | 92 | 1014.5 |
| 20260505033150 | 55 | 107 | 0.0 | 0.9 | 0.02 | 0.06 | 0.06 | 92 | 1014.5 |
| 20260505033050 | 56 | 108 | 0.0 | 0.9 | 0.02 | 0.06 | 0.06 | 92 | 1014.5 |
| 20260505032951 | 56 | 108 | 0.0 | 0.0 | 0.01 | 0.05 | 0.06 | 92 | 1014.5 |
| 20260505032843 | 56 | 108 | 0.0 | 0.0 | 0.01 | 0.05 | 0.05 | 92 | 1014.5 |
| 20260505032744 | 56 | 108 | 0.0 | 0.0 | 0.01 | 0.05 | 0.05 | 92 | 1014.6 |
| 20260505032703 | 56 | 108 | 0.0 | 0.0 | 0.01 | 0.05 | 0.05 | 92 | 1014.6 |
| 20260505032643 | 56 | 108 | 0.0 | 0.0 | 0.01 | 0.05 | 0.05 | 92 | 1014.6 |
| 20260505032600 | 56 | 108 | 0.0 | 0.0 | 0.01 | 0.05 | 0.05 | 92 | 1014.6 |
| 20260505032550 | 56 | 108 | 0.0 | 0.0 | 0.01 | 0.05 | 0.05 | 92 | 1014.6 |
| 20260505032341 | 56 | 107 | 0.0 | 0.0 | 0.01 | 0.05 | 0.05 | 92 | 1014.7 |
| 20260505032241 | 56 | 108 | 0.0 | 0.9 | 0.01 | 0.05 | 0.05 | 92 | 1014.6 |
| 20260505032142 | 56 | 108 | 0.0 | 0.9 | 0.01 | 0.05 | 0.05 | 91 | 1014.7 |
| 20260505032040 | 56 | 108 | 0.0 | 0.9 | 0.00 | 0.04 | 0.05 | 88 | 1014.7 |
| 20260505031941 | 56 | 108 | 0.0 | 0.9 | 0.00 | 0.04 | 0.04 | 88 | 1014.7 |
| 20260505031836 | 56 | 108 | 0.0 | 0.9 | 0.00 | 0.04 | 0.04 | 88 | 1014.7 |
| 20260505031736 | 56 | 107 | 0.0 | 0.9 | 0.00 | 0.04 | 0.04 | 88 | 1014.7 |
| 20260505031635 | 56 | 107 | 0.0 | 0.9 | 0.00 | 0.04 | 0.04 | 88 | 1014.7 |
| 20260505031534 | 56 | 108 | 0.0 | 0.9 | 0.00 | 0.04 | 0.04 | 88 | 1014.6 |
| 20260505031432 | 56 | 108 | 0.0 | 0.9 | 0.00 | 0.04 | 0.04 | 88 | 1014.6 |
| 20260505031332 | 56 | 108 | 0.0 | 0.9 | 0.00 | 0.04 | 0.04 | 87 | 1014.6 |
| 20260505031231 | 56 | 107 | 0.0 | 0.9 | 0.00 | 0.04 | 0.04 | 88 | 1014.5 |
| 20260505031129 | 57 | 108 | 0.0 | 0.9 | 0.00 | 0.04 | 0.04 | 87 | 1014.5 |
| 20260505031027 | 56 | 108 | 0.0 | 0.9 | 0.00 | 0.04 | 0.04 | 87 | 1014.5 |
| 20260505030928 | 57 | 108 | 0.0 | 0.0 | 0.00 | 0.04 | 0.04 | 87 | 1014.4 |
| 20260505030822 | 57 | 108 | 0.0 | 0.0 | 0.00 | 0.04 | 0.04 | 87 | 1014.4 |
| 20260505030719 | 57 | 107 | 0.0 | 0.0 | 0.00 | 0.04 | 0.04 | 87 | 1014.3 |
| 20260505030619 | 57 | 108 | 0.0 | 0.0 | 0.00 | 0.04 | 0.04 | 87 | 1014.3 |
| 20260505030423 | 57 | 108 | 0.0 | 0.9 | 0.00 | 0.04 | 0.04 | 87 | 1014.3 |
| 20260505030318 | 57 | 108 | 0.0 | 0.9 | 0.00 | 0.04 | 0.04 | 86 | 1014.2 |
| 20260505030218 | 57 | 108 | 0.0 | 0.9 | 0.00 | 0.04 | 0.04 | 86 | 1014.2 |
| 20260505030118 | 57 | 108 | 0.0 | 0.9 | 0.00 | 0.04 | 0.04 | 86 | 1014.2 |
| 20260505030016 | 57 | 108 | 0.0 | 0.9 | 0.00 | 0.04 | 0.04 | 86 | 1014.2 |
| 20260505025929 | 57 | 108 | 0.0 | 0.9 | 0.00 | 0.04 | 0.04 | 86 | 1014.2 |
| 20260505025807 | 57 | 108 | 0.0 | 0.9 | 0.00 | 0.04 | 0.04 | 86 | 1014.1 |
| 20260505025708 | 57 | 108 | 0.0 | 0.9 | 0.00 | 0.04 | 0.04 | 86 | 1014.1 |
| 20260505025607 | 57 | 107 | 0.0 | 0.9 | 0.00 | 0.04 | 0.04 | 86 | 1014.1 |
| 20260505025507 | 57 | 108 | 0.0 | 0.9 | 0.00 | 0.04 | 0.04 | 86 | 1014.1 |
| 20260505025412 | 57 | 107 | 0.0 | 0.9 | 0.00 | 0.04 | 0.04 | 86 | 1014.1 |
| 20260505025304 | 57 | 107 | 0.0 | 0.9 | 0.00 | 0.04 | 0.04 | 86 | 1014.1 |
| 20260505025202 | 57 | 107 | 0.0 | 0.9 | 0.00 | 0.04 | 0.04 | 86 | 1014.1 |
| 20260505025101 | 57 | 108 | 0.0 | 0.9 | 0.00 | 0.04 | 0.04 | 86 | 1014.1 |
| 20260505025002 | 57 | 108 | 0.0 | 0.9 | 0.00 | 0.04 | 0.04 | 86 | 1014.1 |
| 20260505024904 | 57 | 107 | 0.0 | 0.9 | 0.00 | 0.04 | 0.04 | 86 | 1014.0 |
| 20260505024800 | 57 | 107 | 0.0 | 0.9 | 0.00 | 0.04 | 0.04 | 86 | 1014.0 |
| 20260505024700 | 57 | 107 | 0.0 | 1.7 | 0.00 | 0.04 | 0.04 | 86 | 1014.0 |
| 20260505024600 | 57 | 108 | 0.0 | 1.7 | 0.00 | 0.04 | 0.04 | 86 | 1014.0 |
| 20260505024457 | 57 | 124 | 0.0 | 1.7 | 0.00 | 0.04 | 0.04 | 86 | 1013.9 |
| 20260505024359 | 57 | 124 | 0.0 | 1.7 | 0.00 | 0.04 | 0.04 | 86 | 1013.9 |
| 20260505024251 | 57 | 124 | 0.0 | 1.7 | 0.00 | 0.04 | 0.04 | 86 | 1013.9 |
| 20260505024150 | 57 | 124 | 0.0 | 2.6 | 0.00 | 0.04 | 0.04 | 86 | 1013.8 |
| 20260505024050 | 57 | 129 | 0.0 | 2.6 | 0.00 | 0.04 | 0.04 | 86 | 1013.8 |
| 20260505023949 | 57 | 128 | 0.0 | 2.6 | 0.00 | 0.04 | 0.04 | 86 | 1013.8 |
| 20260505023851 | 57 | 128 | 0.9 | 2.6 | 0.00 | 0.04 | 0.04 | 85 | 1013.8 |
| 20260505023750 | 57 | 134 | 0.9 | 2.6 | 0.00 | 0.04 | 0.04 | 86 | 1013.8 |
| 20260505023648 | 57 | 135 | 0.9 | 2.6 | 0.00 | 0.04 | 0.04 | 86 | 1013.8 |
| 20260505023547 | 57 | 136 | 0.9 | 2.6 | 0.00 | 0.04 | 0.04 | 86 | 1013.8 |
| 20260505023446 | 57 | 136 | 0.9 | 2.6 | 0.00 | 0.04 | 0.04 | 85 | 1013.8 |
| 20260505023358 | 57 | 136 | 0.9 | 2.6 | 0.01 | 0.04 | 0.04 | 86 | 1013.8 |
| 20260505023242 | 57 | 110 | 0.9 | 2.6 | 0.01 | 0.04 | 0.04 | 85 | 1013.8 |
| 20260505023142 | 57 | 96 | 0.9 | 2.6 | 0.01 | 0.04 | 0.04 | 85 | 1013.8 |
| 20260505023041 | 57 | 96 | 0.9 | 2.6 | 0.01 | 0.04 | 0.04 | 85 | 1013.8 |
| 20260505022940 | 57 | 96 | 0.9 | 2.6 | 0.01 | 0.04 | 0.04 | 85 | 1013.8 |
| 20260505022839 | 57 | 96 | 0.9 | 2.6 | 0.01 | 0.04 | 0.04 | 85 | 1013.8 |
| 20260505022738 | 57 | 96 | 0.9 | 2.6 | 0.01 | 0.04 | 0.04 | 85 | 1013.8 |
| 20260505022636 | 57 | 115 | 0.9 | 2.6 | 0.01 | 0.04 | 0.04 | 85 | 1013.8 |
| 20260505022535 | 57 | 117 | 0.9 | 2.6 | 0.01 | 0.04 | 0.04 | 85 | 1013.9 |
| 20260505022434 | 57 | 117 | 0.9 | 2.6 | 0.01 | 0.04 | 0.04 | 85 | 1013.9 |
| 20260505022334 | 57 | 129 | 0.9 | 2.6 | 0.01 | 0.04 | 0.04 | 85 | 1013.9 |
| 20260505022226 | 57 | 102 | 0.9 | 2.6 | 0.01 | 0.04 | 0.04 | 85 | 1013.9 |
| 20260505022125 | 57 | 88 | 0.9 | 2.6 | 0.01 | 0.04 | 0.04 | 85 | 1014.0 |
| 20260505022046 | 57 | 102 | 0.9 | 2.6 | 0.01 | 0.04 | 0.04 | 85 | 1014.0 |
| 20260505022026 | 57 | 97 | 0.9 | 2.6 | 0.01 | 0.04 | 0.04 | 86 | 1013.9 |
| 20260505021941 | 57 | 104 | 0.9 | 2.6 | 0.01 | 0.04 | 0.04 | 85 | 1014.0 |
| 20260505021931 | 57 | 102 | 0.9 | 2.6 | 0.01 | 0.04 | 0.04 | 85 | 1014.0 |
| 20260505021721 | 57 | 113 | 0.9 | 2.6 | 0.01 | 0.04 | 0.04 | 86 | 1014.0 |
| 20260505021619 | 57 | 110 | 0.9 | 2.6 | 0.01 | 0.04 | 0.04 | 86 | 1014.0 |
| 20260505021541 | 57 | 136 | 0.0 | 1.7 | 0.01 | 0.04 | 0.04 | 86 | 1014.0 |
| 20260505021520 | 57 | 110 | 0.9 | 1.7 | 0.01 | 0.04 | 0.04 | 86 | 1014.0 |
| 20260505021435 | 57 | 136 | 0.9 | 1.7 | 0.01 | 0.04 | 0.04 | 86 | 1014.0 |
| 20260505021425 | 57 | 136 | 0.0 | 1.7 | 0.01 | 0.04 | 0.04 | 86 | 1014.0 |
| 20260505021216 | 57 | 136 | 0.0 | 1.7 | 0.01 | 0.04 | 0.04 | 86 | 1014.0 |
| 20260505021113 | 57 | 136 | 0.0 | 1.7 | 0.01 | 0.04 | 0.04 | 86 | 1013.9 |
| 20260505021013 | 57 | 132 | 0.0 | 1.7 | 0.01 | 0.04 | 0.04 | 86 | 1014.0 |
| 20260505020914 | 57 | 144 | 0.0 | 1.7 | 0.01 | 0.04 | 0.04 | 86 | 1014.0 |
| 20260505020814 | 57 | 143 | 0.0 | 1.7 | 0.01 | 0.04 | 0.04 | 86 | 1013.9 |
| 20260505020708 | 57 | 162 | 0.0 | 1.7 | 0.01 | 0.04 | 0.04 | 87 | 1014.0 |
| 20260505020608 | 57 | 118 | 0.0 | 1.7 | 0.01 | 0.04 | 0.04 | 86 | 1013.9 |
| 20260505020508 | 57 | 119 | 0.0 | 1.7 | 0.01 | 0.04 | 0.04 | 86 | 1013.9 |
| 20260505020408 | 57 | 168 | 0.0 | 1.7 | 0.01 | 0.04 | 0.04 | 86 | 1013.9 |
| 20260505020309 | 57 | 167 | 0.0 | 1.7 | 0.01 | 0.04 | 0.04 | 86 | 1013.9 |
| 20260505020203 | 57 | 167 | 0.0 | 1.7 | 0.01 | 0.04 | 0.04 | 86 | 1013.9 |
| 20260505020104 | 57 | 167 | 0.0 | 1.7 | 0.02 | 0.04 | 0.04 | 85 | 1013.9 |
| 20260505020028 | 57 | 148 | 0.9 | 1.7 | 0.02 | 0.04 | 0.04 | 85 | 1013.9 |
| 20260505020004 | 57 | 148 | 0.0 | 1.7 | 0.02 | 0.04 | 0.04 | 85 | 1013.9 |
| 20260505015920 | 57 | 148 | 0.0 | 1.7 | 0.02 | 0.04 | 0.04 | 86 | 1013.9 |
| 20260505015909 | 57 | 148 | 0.9 | 1.7 | 0.02 | 0.04 | 0.04 | 85 | 1013.9 |
| 20260505015658 | 57 | 148 | 0.9 | 2.6 | 0.02 | 0.04 | 0.04 | 85 | 1013.9 |
| 20260505015558 | 57 | 144 | 0.9 | 2.6 | 0.02 | 0.04 | 0.04 | 85 | 1013.9 |
| 20260505015457 | 57 | 135 | 0.9 | 2.6 | 0.02 | 0.04 | 0.04 | 85 | 1013.9 |
| 20260505015358 | 57 | 141 | 0.9 | 2.6 | 0.02 | 0.04 | 0.04 | 86 | 1013.9 |
| 20260505015300 | 57 | 141 | 0.9 | 4.3 | 0.02 | 0.04 | 0.04 | 85 | 1013.9 |
| 20260505015152 | 57 | 141 | 0.9 | 4.3 | 0.02 | 0.04 | 0.04 | 85 | 1013.9 |
| 20260505015049 | 57 | 141 | 0.9 | 4.3 | 0.02 | 0.04 | 0.04 | 85 | 1013.9 |
| 20260505014950 | 57 | 150 | 0.9 | 4.3 | 0.02 | 0.04 | 0.04 | 85 | 1013.9 |
| 20260505014850 | 57 | 138 | 0.9 | 4.3 | 0.02 | 0.04 | 0.04 | 85 | 1013.9 |
| 20260505014751 | 57 | 137 | 0.9 | 4.3 | 0.02 | 0.04 | 0.04 | 86 | 1013.9 |
| 20260505014646 | 57 | 142 | 0.9 | 4.3 | 0.02 | 0.04 | 0.04 | 86 | 1013.9 |
| 20260505014543 | 57 | 132 | 0.9 | 4.3 | 0.02 | 0.04 | 0.04 | 86 | 1013.9 |
| 20260505014444 | 57 | 110 | 0.9 | 4.3 | 0.02 | 0.04 | 0.04 | 86 | 1013.9 |
| 20260505014344 | 57 | 110 | 0.9 | 4.3 | 0.02 | 0.04 | 0.04 | 86 | 1014.0 |
| 20260505014246 | 57 | 122 | 0.0 | 2.6 | 0.02 | 0.04 | 0.04 | 87 | 1013.9 |
| 20260505014144 | 57 | 110 | 0.0 | 2.6 | 0.02 | 0.04 | 0.04 | 87 | 1014.0 |
| 20260505014042 | 57 | 110 | 0.0 | 2.6 | 0.02 | 0.04 | 0.04 | 87 | 1013.9 |
| 20260505013940 | 57 | 110 | 0.0 | 2.6 | 0.02 | 0.04 | 0.04 | 87 | 1013.9 |
| 20260505013840 | 57 | 110 | 0.0 | 2.6 | 0.02 | 0.04 | 0.04 | 87 | 1013.9 |
| 20260505013739 | 57 | 211 | 0.0 | 2.6 | 0.02 | 0.04 | 0.04 | 86 | 1014.0 |
| 20260505013637 | 57 | 211 | 0.0 | 2.6 | 0.02 | 0.04 | 0.04 | 86 | 1013.9 |
| 20260505013536 | 57 | 211 | 0.0 | 2.6 | 0.02 | 0.04 | 0.04 | 86 | 1013.9 |
| 20260505013434 | 57 | 211 | 0.9 | 2.6 | 0.02 | 0.04 | 0.04 | 86 | 1013.9 |
| 20260505013333 | 57 | 138 | 0.9 | 3.5 | 0.01 | 0.03 | 0.04 | 86 | 1013.9 |
| 20260505013234 | 57 | 141 | 0.9 | 3.5 | 0.01 | 0.03 | 0.03 | 86 | 1013.9 |
| 20260505013128 | 57 | 141 | 0.9 | 3.5 | 0.01 | 0.03 | 0.03 | 86 | 1013.9 |
| 20260505013026 | 57 | 141 | 0.9 | 3.5 | 0.01 | 0.03 | 0.03 | 86 | 1013.9 |
| 20260505012926 | 57 | 141 | 0.9 | 3.5 | 0.01 | 0.03 | 0.03 | 86 | 1013.9 |
| 20260505012826 | 57 | 141 | 0.9 | 3.5 | 0.01 | 0.03 | 0.03 | 85 | 1013.9 |
| 20260505012727 | 57 | 147 | 1.7 | 3.5 | 0.01 | 0.03 | 0.03 | 85 | 1013.9 |
| 20260505012619 | 57 | 95 | 0.9 | 3.5 | 0.01 | 0.03 | 0.03 | 85 | 1013.8 |
| 20260505012520 | 57 | 89 | 0.9 | 3.5 | 0.01 | 0.03 | 0.03 | 85 | 1013.8 |
| 20260505012441 | 57 | 100 | 0.9 | 2.6 | 0.01 | 0.03 | 0.03 | 85 | 1013.8 |
| 20260505012420 | 57 | 104 | 0.9 | 3.5 | 0.01 | 0.03 | 0.03 | 85 | 1013.8 |
| 20260505012351 | 57 | 101 | 0.9 | 3.5 | 0.01 | 0.03 | 0.03 | 85 | 1013.8 |
| 20260505012327 | 57 | 100 | 0.9 | 2.6 | 0.01 | 0.03 | 0.03 | 85 | 1013.8 |
| 20260505012117 | 57 | 116 | 0.9 | 2.6 | 0.01 | 0.03 | 0.03 | 85 | 1013.9 |
| 20260505012018 | 57 | 139 | 0.9 | 2.6 | 0.01 | 0.03 | 0.03 | 85 | 1013.9 |
| 20260505011917 | 57 | 140 | 0.9 | 2.6 | 0.01 | 0.03 | 0.03 | 85 | 1013.9 |
| 20260505011815 | 57 | 116 | 0.9 | 2.6 | 0.01 | 0.03 | 0.03 | 85 | 1013.9 |
| 20260505011718 | 57 | 110 | 0.9 | 1.7 | 0.01 | 0.03 | 0.03 | 85 | 1013.9 |
| 20260505011610 | 57 | 99 | 0.9 | 1.7 | 0.01 | 0.03 | 0.03 | 85 | 1013.9 |
| 20260505011508 | 57 | 98 | 0.9 | 2.6 | 0.01 | 0.03 | 0.03 | 85 | 1014.0 |
| 20260505011407 | 57 | 110 | 0.9 | 2.6 | 0.01 | 0.03 | 0.03 | 85 | 1014.0 |